FW4770 Weather Reports


time (UTC)temp
C
wind
direction
speed
KPH
gust
KPH
rain 1hr
cm
rain 24hr
cm
rain mn
cm
humidity
%
barometer
mb
20260831154525 26 69 6.4 16.1 0.00 0.00 0.00 84 1011.9
20260831154408 27 73 6.4 16.1 0.00 0.00 0.00 85 1011.9
20260831154313 27 61 8.0 16.1 0.00 0.00 0.00 84 1011.9
20260831154157 27 55 8.0 16.1 0.00 0.00 0.00 84 1011.8
20260831154102 27 66 8.0 16.1 0.00 0.00 0.00 84 1011.8
20260831154007 27 51 8.0 19.3 0.00 0.00 0.00 84 1011.8
20260831153854 27 80 8.0 19.3 0.00 0.00 0.00 84 1011.7
20260831153759 27 40 9.7 19.3 0.00 0.00 0.00 84 1011.7
20260831153704 27 61 8.0 19.3 0.00 0.00 0.00 85 1011.7
20260831153609 27 85 6.4 19.3 0.00 0.00 0.00 85 1011.7
20260831153532 27 35 6.4 19.3 0.00 0.00 0.00 85 1011.7
20260831153416 27 48 9.7 19.3 0.00 0.00 0.00 85 1011.7
20260831153304 27 49 11.3 19.3 0.00 0.00 0.00 85 1011.6
20260831153209 27 75 12.9 19.3 0.00 0.00 0.00 84 1011.6
20260831153054 27 83 9.7 16.1 0.00 0.00 0.00 84 1011.7
20260831152959 27 80 6.4 14.5 0.00 0.00 0.00 85 1011.7
20260831152903 27 65 3.2 9.7 0.00 0.00 0.00 85 1011.6
20260831152828 27 19 3.2 9.7 0.00 0.00 0.00 86 1011.6
20260831152656 27 27 4.8 12.9 0.00 0.00 0.00 85 1011.5
20260831152600 27 28 6.4 12.9 0.00 0.00 0.00 85 1011.5
20260831152525 27 90 6.4 12.9 0.00 0.00 0.00 86 1011.6
20260831152409 27 60 6.4 12.9 0.00 0.00 0.00 86 1011.6
20260831152314 27 57 8.0 14.5 0.00 0.00 0.00 86 1011.5
20260831152239 27 35 8.0 14.5 0.00 0.00 0.00 85 1011.5
20260831152055 27 63 8.0 14.5 0.00 0.00 0.00 85 1011.3
20260831152004 27 57 9.7 14.5 0.00 0.00 0.00 85 1011.3
20260831151909 27 90 9.7 14.5 0.00 0.00 0.00 85 1011.3
20260831151813 27 85 8.0 14.5 0.00 0.00 0.00 85 1011.3
20260831151738 27 99 8.0 14.5 0.00 0.00 0.00 86 1011.3
20260831151555 27 96 9.7 14.5 0.00 0.00 0.00 86 1011.3
20260831151459 27 96 9.7 14.5 0.00 0.00 0.00 86 1011.4
20260831151404 27 81 9.7 14.5 0.00 0.00 0.00 86 1011.3
20260831151312 27 73 9.7 14.5 0.00 0.00 0.00 85 1011.3
20260831151217 27 79 8.0 14.5 0.00 0.00 0.00 86 1011.2
20260831151055 27 82 6.4 14.5 0.00 0.00 0.00 88 1011.2
20260831151019 27 51 6.4 9.7 0.00 0.00 0.00 88 1011.1
20260831150902 26 49 8.0 9.7 0.00 0.00 0.00 87 1011.2
20260831150807 26 42 6.4 9.7 0.00 0.00 0.00 88 1011.2
20260831150732 26 64 6.4 9.7 0.00 0.00 0.00 87 1011.1
20260831150600 26 75 4.8 11.3 0.00 0.00 0.00 87 1011.0
20260831150525 26 63 4.8 11.3 0.00 0.00 0.00 87 1011.0
20260831150429 26 54 4.8 14.5 0.00 0.00 0.00 87 1011.0
20260831150313 26 90 8.0 14.5 0.00 0.00 0.00 86 1011.0
20260831150158 26 107 8.0 14.5 0.00 0.00 0.00 86 1011.0
20260831150027 26 71 8.0 14.5 0.00 0.00 0.00 87 1010.9
20260831145855 26 89 6.4 14.5 0.00 0.00 0.00 88 1010.9
20260831145759 26 71 6.4 14.5 0.00 0.00 0.00 88 1011.0
20260831145704 26 51 8.0 14.5 0.00 0.00 0.00 88 1010.9
20260831145610 26 63 6.4 14.5 0.00 0.00 0.00 88 1010.9
20260831145514 26 46 4.8 12.9 0.00 0.00 0.00 88 1010.9
20260831145418 26 34 6.4 12.9 0.00 0.00 0.00 88 1010.9
20260831145306 26 59 6.4 12.9 0.00 0.00 0.00 87 1010.9
20260831145202 26 59 4.8 16.1 0.00 0.00 0.00 87 1011.0
20260831145107 26 87 4.8 16.1 0.00 0.00 0.00 87 1011.0
20260831145032 26 87 6.4 16.1 0.00 0.00 0.00 87 1010.9
20260831144856 26 68 6.4 16.1 0.00 0.00 0.00 87 1010.9
20260831144801 26 82 6.4 16.1 0.00 0.00 0.00 87 1010.9
20260831144706 26 86 8.0 16.1 0.00 0.00 0.00 87 1010.9
20260831144615 26 66 6.4 16.1 0.00 0.00 0.00 88 1010.9
20260831144519 26 74 6.4 16.1 0.00 0.00 0.00 87 1010.9
20260831144356 26 55 8.0 16.1 0.00 0.00 0.00 87 1010.7
20260831144321 26 30 6.4 16.1 0.00 0.00 0.00 87 1010.7
20260831144225 26 79 4.8 12.9 0.00 0.00 0.00 88 1010.8
20260831144128 26 58 4.8 12.9 0.00 0.00 0.00 88 1010.8
20260831144011 26 53 6.4 12.9 0.00 0.00 0.00 88 1010.7
20260831143916 26 328 6.4 12.9 0.00 0.00 0.00 88 1010.7
20260831143804 26 355 3.2 11.3 0.00 0.00 0.00 88 1010.7
20260831143710 26 39 3.2 11.3 0.00 0.00 0.00 88 1010.7
20260831143554 26 39 4.8 14.5 0.00 0.00 0.00 88 1010.6
20260831143459 26 15 4.8 14.5 0.00 0.00 0.00 88 1010.6
20260831143404 26 19 8.0 14.5 0.00 0.00 0.00 88 1010.7
20260831143309 26 23 8.0 14.5 0.00 0.00 0.00 88 1010.7
20260831143158 26 64 6.4 14.5 0.00 0.00 0.00 87 1010.6
20260831143122 26 72 6.4 14.5 0.00 0.00 0.00 88 1010.6
20260831143027 26 64 6.4 14.5 0.00 0.00 0.00 88 1010.6
20260831142909 26 74 8.0 14.5 0.00 0.00 0.00 87 1010.6
20260831142813 26 45 8.0 14.5 0.00 0.00 0.00 87 1010.6
20260831142658 26 68 8.0 14.5 0.00 0.00 0.00 87 1010.5
20260831142607 26 11 8.0 14.5 0.00 0.00 0.00 87 1010.5
20260831142511 26 35 6.4 19.3 0.00 0.00 0.00 87 1010.6
20260831142356 26 41 6.4 19.3 0.00 0.00 0.00 87 1010.6
20260831142301 26 28 8.0 19.3 0.00 0.00 0.00 88 1010.6
20260831142206 26 69 6.4 19.3 0.00 0.00 0.00 88 1010.6
20260831142111 26 54 8.0 19.3 0.00 0.00 0.00 88 1010.6
20260831141959 26 46 8.0 19.3 0.00 0.00 0.00 88 1010.5
20260831141904 26 345 6.4 19.3 0.00 0.00 0.00 89 1010.5
20260831141809 26 38 9.7 19.3 0.00 0.00 0.00 89 1010.5
20260831141714 26 15 9.7 19.3 0.00 0.00 0.00 89 1010.5
20260831141558 26 9 4.8 9.7 0.00 0.00 0.00 90 1010.4
20260831141503 26 44 4.8 12.9 0.00 0.00 0.00 91 1010.4
20260831141412 26 44 4.8 12.9 0.00 0.00 0.00 90 1010.4
20260831141317 26 31 4.8 12.9 0.00 0.00 0.00 91 1010.4
20260831141200 26 329 4.8 12.9 0.00 0.00 0.00 91 1010.3
20260831141125 25 62 4.8 12.9 0.00 0.00 0.00 91 1010.2
20260831141009 25 38 4.8 12.9 0.00 0.00 0.00 91 1010.2
20260831140854 25 35 4.8 12.9 0.00 0.00 0.00 91 1010.3
20260831140803 25 54 6.4 12.9 0.00 0.00 0.00 91 1010.3
20260831140708 25 34 6.4 12.9 0.00 0.00 0.00 91 1010.3
20260831140613 25 29 4.8 12.9 0.00 0.00 0.00 91 1010.2
20260831140518 25 31 4.8 12.9 0.00 0.00 0.00 91 1010.3
20260831140401 25 29 6.4 12.9 0.00 0.00 0.00 91 1010.2
20260831140306 25 23 8.0 12.9 0.00 0.00 0.00 91 1010.2
20260831140155 25 15 6.4 12.9 0.00 0.00 0.00 91 1010.1
20260831140120 25 34 6.4 12.9 0.00 0.00 0.00 91 1010.1
20260831140004 25 42 6.4 12.9 0.00 0.00 0.00 92 1010.1
20260831135909 25 51 4.8 9.7 0.00 0.00 0.00 92 1010.1
20260831135834 25 53 4.8 9.7 0.00 0.00 0.00 92 1010.1
20260831135717 25 58 4.8 9.7 0.00 0.00 0.00 92 1010.1
20260831135555 25 14 4.8 9.7 0.00 0.00 0.00 92 1010.1
20260831135520 25 39 6.4 9.7 0.00 0.00 0.00 92 1010.1
20260831135428 25 355 6.4 14.5 0.00 0.00 0.00 92 1010.1
20260831135312 25 360 6.4 14.5 0.00 0.00 0.00 93 1010.2
20260831135217 25 360 4.8 14.5 0.00 0.00 0.00 93 1010.1
20260831135059 25 16 4.8 14.5 0.00 0.00 0.00 93 1010.1
20260831135004 25 360 4.8 14.5 0.00 0.00 0.00 93 1010.0
20260831134910 25 37 4.8 14.5 0.00 0.00 0.00 94 1010.0
20260831134757 25 29 3.2 14.5 0.00 0.00 0.00 94 1010.0
20260831134702 25 23 6.4 14.5 0.00 0.00 0.00 94 1010.1
20260831134607 24 24 9.7 14.5 0.00 0.00 0.00 94 1010.1
20260831134532 24 11 9.7 14.5 0.00 0.00 0.00 95 1010.1
20260831134356 24 10 6.4 12.9 0.00 0.00 0.00 95 1010.1
20260831134300 24 5 6.4 14.5 0.00 0.00 0.00 95 1010.1
20260831134225 24 18 6.4 14.5 0.00 0.00 0.00 95 1010.0
20260831134113 24 355 8.0 14.5 0.00 0.00 0.00 95 1010.0
20260831133958 24 21 6.4 14.5 0.00 0.00 0.00 96 1010.0
20260831133902 24 37 4.8 14.5 0.00 0.00 0.00 95 1010.0
20260831133807 24 5 6.4 14.5 0.00 0.00 0.00 95 1010.0
20260831133712 24 30 8.0 14.5 0.00 0.00 0.00 96 1010.1
20260831133558 24 345 8.0 14.5 0.00 0.00 0.00 96 1010.0
20260831133525 23 360 8.0 14.5 0.00 0.00 0.00 96 1010.0
20260831133408 23 355 8.0 14.5 0.00 0.00 0.00 96 1010.0
20260831133313 23 333 6.4 9.7 0.00 0.00 0.00 97 1009.9
20260831133157 23 350 6.4 9.7 0.00 0.00 0.00 97 1010.0
20260831133122 23 355 4.8 9.7 0.00 0.00 0.00 97 1010.0
20260831133025 23 38 4.8 9.7 0.00 0.00 0.00 97 1010.0
20260831132908 23 5 4.8 8.0 0.00 0.00 0.00 97 1010.0
20260831132817 23 5 3.2 8.0 0.00 0.00 0.00 97 1009.9
20260831132721 23 360 3.2 8.0 0.00 0.00 0.00 97 1009.8
20260831132605 23 5 3.2 8.0 0.00 0.00 0.00 97 1009.8
20260831132529 23 5 3.2 8.0 0.00 0.00 0.00 97 1009.8
20260831132413 23 19 4.8 8.0 0.00 0.00 0.00 97 1009.8
20260831132338 23 355 6.4 8.0 0.00 0.00 0.00 97 1009.8
20260831132155 23 343 6.4 8.0 0.00 0.00 0.00 97 1009.8
20260831132059 23 355 4.8 8.0 0.00 0.00 0.00 97 1009.8
20260831132008 23 355 3.2 8.0 0.00 0.00 0.00 97 1009.8
20260831131933 23 338 3.2 8.0 0.00 0.00 0.00 97 1009.8
20260831131757 23 5 6.4 8.0 0.00 0.00 0.00 97 1009.9
20260831131702 23 346 6.4 12.9 0.00 0.00 0.00 98 1009.9
20260831131607 23 338 4.8 12.9 0.00 0.00 0.00 98 1009.9
20260831131512 23 5 3.2 12.9 0.00 0.00 0.00 98 1009.9
20260831131421 23 350 3.2 12.9 0.00 0.00 0.00 98 1009.9
20260831131305 23 348 3.2 12.9 0.00 0.00 0.00 98 1009.9
20260831131230 23 350 3.2 12.9 0.00 0.00 0.00 98 1009.9
20260831131113 23 350 4.8 12.9 0.00 0.00 0.00 98 1009.9
20260831130958 22 348 6.4 12.9 0.00 0.00 0.00 98 1009.8
20260831130903 22 348 6.4 12.9 0.00 0.00 0.00 98 1009.8
20260831130828 22 327 4.8 9.7 0.00 0.00 0.00 98 1009.8
20260831130656 22 22 6.4 9.7 0.00 0.00 0.00 98 1009.9
20260831130601 22 346 6.4 9.7 0.00 0.00 0.00 98 1009.8
20260831130505 22 360 4.8 8.0 0.00 0.00 0.00 98 1009.9
20260831130410 22 5 4.8 8.0 0.00 0.00 0.00 98 1009.9
20260831130315 22 355 3.2 8.0 0.00 0.00 0.00 98 1009.9
20260831130219 22 360 3.2 8.0 0.00 0.00 0.00 98 1009.9
20260831130123 22 355 4.8 8.0 0.00 0.00 0.00 98 1009.8
20260831130011 22 355 4.8 8.0 0.00 0.00 0.00 98 1009.8
20260831125856 22 342 4.8 8.0 0.00 0.00 0.00 98 1009.8
20260831125801 22 346 4.8 8.0 0.00 0.00 0.00 98 1009.8
20260831125706 22 355 3.2 8.0 0.00 0.00 0.00 97 1009.8
20260831125630 22 360 3.2 6.4 0.00 0.00 0.00 97 1009.7
20260831125513 22 360 1.6 6.4 0.00 0.00 0.00 97 1009.8
20260831125402 22 322 3.2 6.4 0.00 0.00 0.00 97 1009.8
20260831125307 22 296 4.8 6.4 0.00 0.00 0.00 97 1009.8
20260831125212 22 296 4.8 6.4 0.00 0.00 0.00 97 1009.8
20260831125057 22 281 1.6 6.4 0.00 0.00 0.00 98 1009.7
20260831125002 22 288 1.6 6.4 0.00 0.00 0.00 98 1009.8
20260831124907 22 288 3.2 6.4 0.00 0.00 0.00 98 1009.8
20260831124755 22 288 3.2 6.4 0.00 0.00 0.00 98 1009.8
20260831124700 22 286 3.2 6.4 0.00 0.00 0.00 97 1009.8
20260831124605 22 255 3.2 6.4 0.00 0.00 0.00 97 1009.8
20260831124509 22 255 3.2 6.4 0.00 0.00 0.00 97 1009.8
20260831124354 22 254 1.6 6.4 0.00 0.00 0.00 97 1009.8
20260831124300 21 254 3.2 6.4 0.00 0.00 0.00 97 1009.7
20260831124207 21 254 3.2 6.4 0.00 0.00 0.00 97 1009.7
20260831124112 21 254 3.2 6.4 0.00 0.00 0.00 97 1009.7
20260831124017 21 254 1.6 6.4 0.00 0.00 0.00 97 1009.7
20260831123855 21 254 3.2 6.4 0.00 0.00 0.00 97 1009.7
20260831123800 21 254 3.2 6.4 0.00 0.00 0.00 97 1009.6
20260831123704 21 229 3.2 4.8 0.00 0.00 0.00 97 1009.7
20260831123613 21 229 3.2 4.8 0.00 0.00 0.00 97 1009.7
20260831123538 21 229 1.6 4.8 0.00 0.00 0.00 97 1009.7
20260831123355 21 229 0.0 4.8 0.00 0.00 0.00 97 1009.7
20260831123300 21 229 1.6 4.8 0.00 0.00 0.00 97 1009.6
20260831123204 21 229 3.2 4.8 0.00 0.00 0.00 97 1009.5
20260831123109 21 229 3.2 4.8 0.00 0.00 0.00 97 1009.5
20260831122958 21 229 3.2 4.8 0.00 0.00 0.00 97 1009.4
20260831122904 21 229 3.2 4.8 0.00 0.00 0.00 97 1009.4
20260831122828 21 229 3.2 4.8 0.00 0.00 0.00 97 1009.4
20260831122712 21 229 1.6 6.4 0.00 0.00 0.00 97 1009.4
20260831122617 21 229 1.6 6.4 0.00 0.00 0.00 97 1009.4
20260831122455 21 229 3.2 6.4 0.00 0.00 0.00 97 1009.4
20260831122404 21 229 3.2 6.4 0.00 0.00 0.00 97 1009.3
20260831122308 21 229 3.2 6.4 0.00 0.00 0.00 97 1009.3
20260831122213 21 229 3.2 6.4 0.00 0.00 0.00 97 1009.3
20260831122058 21 229 3.2 6.4 0.00 0.00 0.00 97 1009.4
20260831122003 21 229 3.2 6.4 0.00 0.00 0.00 97 1009.4
20260831121908 21 229 3.2 6.4 0.00 0.00 0.00 96 1009.4
20260831121757 20 229 3.2 4.8 0.00 0.00 0.00 96 1009.3
20260831121702 20 229 3.2 4.8 0.00 0.00 0.00 97 1009.3
20260831121607 20 229 3.2 4.8 0.00 0.00 0.00 97 1009.3
20260831121512 20 229 3.2 4.8 0.00 0.00 0.00 97 1009.3
20260831121417 20 229 3.2 4.8 0.00 0.00 0.00 97 1009.3
20260831121300 20 229 1.6 4.8 0.00 0.00 0.00 97 1009.3
20260831121208 20 229 1.6 4.8 0.00 0.00 0.00 97 1009.3
20260831121113 20 229 1.6 4.8 0.00 0.00 0.00 97 1009.2
20260831120958 20 229 1.6 4.8 0.00 0.00 0.00 96 1009.3
20260831120903 20 229 1.6 4.8 0.00 0.00 0.00 96 1009.2
20260831120807 20 229 1.6 4.8 0.00 0.00 0.00 96 1009.2
20260831120710 20 229 1.6 4.8 0.00 0.00 0.00 96 1009.1
20260831120559 20 229 3.2 4.8 0.00 0.00 0.00 96 1009.1
20260831120504 20 229 3.2 4.8 0.00 0.00 0.00 96 1009.1
20260831120409 20 229 3.2 4.8 0.00 0.00 0.00 96 1009.1
20260831120254 20 229 3.2 4.8 0.00 0.00 0.00 96 1009.1
20260831120159 20 229 1.6 4.8 0.00 0.00 0.00 96 1009.1
20260831120103 20 229 1.6 4.8 0.00 0.00 0.00 96 1009.2
20260831120012 20 229 1.6 4.8 0.00 0.00 0.00 95 1009.2
20260831115856 20 229 1.6 4.8 0.00 0.00 0.00 95 1009.1
20260831115801 20 229 1.6 4.8 0.00 0.00 0.00 95 1009.1
20260831115706 20 229 1.6 4.8 0.00 0.00 0.00 95 1009.1
20260831115631 20 229 1.6 4.8 0.00 0.00 0.00 95 1009.2
20260831115455 20 229 3.2 4.8 0.00 0.00 0.00 95 1009.1
20260831115404 20 229 1.6 3.2 0.00 0.00 0.00 95 1009.1
20260831115309 20 229 1.6 3.2 0.00 0.00 0.00 95 1009.1
20260831115154 20 229 1.6 3.2 0.00 0.00 0.00 95 1009.2
20260831115056 20 229 3.2 3.2 0.00 0.00 0.00 95 1009.2
20260831115001 20 229 3.2 3.2 0.00 0.00 0.00 95 1009.1
20260831114906 20 229 1.6 3.2 0.00 0.00 0.00 95 1009.1
20260831114755 20 229 0.0 3.2 0.00 0.00 0.00 95 1009.0
20260831114700 20 229 0.0 3.2 0.00 0.00 0.00 95 1009.0
20260831114625 20 229 0.0 3.2 0.00 0.00 0.00 95 1009.0
20260831114508 20 229 0.0 3.2 0.00 0.00 0.00 95 1009.0
20260831114413 20 229 0.0 3.2 0.00 0.00 0.00 95 1008.9
20260831114258 20 229 0.0 3.2 0.00 0.00 0.00 95 1008.9
20260831114202 20 229 0.0 3.2 0.00 0.00 0.00 95 1008.9
20260831114111 20 229 1.6 3.2 0.00 0.00 0.00 95 1008.9
20260831113956 20 229 1.6 3.2 0.00 0.00 0.00 95 1008.9
20260831113901 20 229 0.0 1.6 0.00 0.00 0.00 95 1008.9
20260831113806 20 229 0.0 0.0 0.00 0.00 0.00 95 1008.8
20260831113710 20 229 0.0 0.0 0.00 0.00 0.00 95 1008.8
20260831113615 20 229 0.0 0.0 0.00 0.00 0.00 95 1008.8
20260831113503 20 229 0.0 0.0 0.00 0.00 0.00 95 1008.8
20260831113408 20 229 0.0 0.0 0.00 0.00 0.00 95 1008.8
20260831113313 20 229 0.0 0.0 0.00 0.00 0.00 95 1008.8
20260831113158 20 229 0.0 0.0 0.00 0.00 0.00 95 1008.8
20260831113102 20 229 0.0 0.0 0.00 0.00 0.00 95 1008.9
20260831113007 20 229 0.0 0.0 0.00 0.00 0.00 95 1008.9
20260831112856 20 229 0.0 0.0 0.00 0.00 0.00 95 1008.8
20260831112801 20 229 0.0 0.0 0.00 0.00 0.00 95 1008.7
20260831112706 20 229 0.0 0.0 0.00 0.00 0.00 95 1008.7
20260831112610 20 229 0.0 0.0 0.00 0.00 0.00 95 1008.8
20260831112455 20 229 0.0 0.0 0.00 0.00 0.00 95 1008.8
20260831112419 20 229 0.0 0.0 0.00 0.00 0.00 95 1008.8
20260831112307 20 229 0.0 0.0 0.00 0.00 0.00 95 1008.8
20260831112212 20 229 0.0 0.0 0.00 0.00 0.00 95 1008.8
20260831112134 20 229 0.0 0.0 0.00 0.00 0.00 95 1008.7
20260831111958 20 229 0.0 0.0 0.00 0.00 0.00 95 1008.7
20260831111903 20 229 0.0 0.0 0.00 0.00 0.00 95 1008.8
20260831111808 20 229 0.0 0.0 0.00 0.00 0.00 95 1008.8
20260831111657 20 229 0.0 0.0 0.00 0.00 0.00 95 1008.8
20260831111601 20 229 0.0 0.0 0.00 0.00 0.00 95 1008.8
20260831111506 20 229 0.0 0.0 0.00 0.00 0.00 95 1008.8
20260831111411 20 229 0.0 0.0 0.00 0.00 0.00 95 1008.8
20260831111256 20 229 0.0 0.0 0.00 0.00 0.00 95 1008.8
20260831111201 20 229 0.0 0.0 0.00 0.00 0.00 95 1008.8
20260831111109 20 229 0.0 0.0 0.00 0.00 0.00 95 1008.8
20260831111011 21 229 0.0 1.6 0.00 0.00 0.00 95 1008.8
20260831110855 21 229 0.0 1.6 0.00 0.00 0.00 95 1008.8
20260831110800 21 229 0.0 1.6 0.00 0.00 0.00 95 1008.8
20260831110705 21 229 0.0 1.6 0.00 0.00 0.00 95 1008.7
20260831110629 21 229 0.0 1.6 0.00 0.00 0.00 95 1008.7
20260831110457 21 229 0.0 1.6 0.00 0.00 0.00 95 1008.7
20260831110401 21 229 0.0 1.6 0.00 0.00 0.00 95 1008.7
20260831110306 21 229 0.0 1.6 0.00 0.00 0.00 95 1008.7
20260831110211 21 229 0.0 1.6 0.00 0.00 0.00 95 1008.6
20260831110117 21 229 0.0 1.6 0.00 0.00 0.00 95 1008.6
20260831105954 21 229 0.0 1.6 0.00 0.00 0.00 95 1008.6
20260831105903 21 229 0.0 1.6 0.00 0.00 0.00 95 1008.6
20260831105808 21 229 0.0 1.6 0.00 0.00 0.00 95 1008.6
20260831105713 21 229 0.0 1.6 0.00 0.00 0.00 95 1008.5
20260831105618 21 229 0.0 1.6 0.00 0.00 0.00 95 1008.6
20260831105456 21 229 0.0 1.6 0.00 0.00 0.00 95 1008.6
20260831105401 21 229 0.0 1.6 0.00 0.00 0.00 95 1008.6
20260831105310 21 229 0.0 3.2 0.00 0.00 0.00 95 1008.6
20260831105155 21 229 0.0 4.8 0.00 0.00 0.00 95 1008.5
20260831105120 21 229 1.6 4.8 0.00 0.00 0.00 95 1008.6
20260831105003 21 229 0.0 4.8 0.00 0.00 0.00 95 1008.6
20260831104928 21 229 0.0 4.8 0.00 0.00 0.00 95 1008.6
20260831104813 21 229 0.0 4.8 0.00 0.00 0.00 95 1008.6
20260831104717 21 229 0.0 4.8 0.00 0.00 0.00 95 1008.6
20260831104605 21 229 1.6 4.8 0.00 0.00 0.00 95 1008.6
20260831104510 21 229 1.6 4.8 0.00 0.00 0.00 95 1008.6
20260831104354 21 229 1.6 4.8 0.00 0.00 0.00 95 1008.5
20260831104259 21 229 1.6 4.8 0.00 0.00 0.00 95 1008.6
20260831104204 21 229 1.6 4.8 0.00 0.00 0.00 95 1008.6
20260831104128 21 229 1.6 4.8 0.00 0.00 0.00 95 1008.6
20260831104012 21 229 3.2 4.8 0.00 0.00 0.00 95 1008.6
20260831103900 21 229 3.2 4.8 0.00 0.00 0.00 95 1008.5
20260831103805 21 229 3.2 4.8 0.00 0.00 0.00 95 1008.6
20260831103729 21 229 1.6 4.8 0.00 0.00 0.00 95 1008.6
20260831103613 21 229 1.6 4.8 0.00 0.00 0.00 95 1008.5
20260831103518 21 229 1.6 4.8 0.00 0.00 0.00 95 1008.6
20260831103422 21 229 1.6 4.8 0.00 0.00 0.00 95 1008.5
20260831103306 21 229 1.6 4.8 0.00 0.00 0.00 95 1008.5
20260831103155 21 229 1.6 4.8 0.00 0.00 0.00 95 1008.7
20260831103120 21 229 1.6 4.8 0.00 0.00 0.00 95 1008.6
20260831103004 21 229 3.2 4.8 0.00 0.00 0.00 95 1008.7
20260831102907 21 229 3.2 4.8 0.00 0.00 0.00 95 1008.7
20260831102812 21 229 1.6 4.8 0.00 0.00 0.00 95 1008.7
20260831102657 21 229 1.6 4.8 0.00 0.00 0.00 95 1008.7
20260831102621 21 229 1.6 4.8 0.00 0.00 0.00 95 1008.7
20260831102525 21 229 3.2 4.8 0.00 0.00 0.00 95 1008.6
20260831102413 21 229 3.2 4.8 0.00 0.00 0.00 95 1008.6
20260831102318 21 229 3.2 6.4 0.00 0.00 0.00 95 1008.6
20260831102156 21 229 3.2 6.4 0.00 0.00 0.00 95 1008.6
20260831102120 21 229 3.2 6.4 0.00 0.00 0.00 95 1008.6
20260831102002 21 228 1.6 6.4 0.00 0.00 0.00 95 1008.6
20260831101907 21 228 1.6 6.4 0.00 0.00 0.00 95 1008.6
20260831101756 21 228 3.2 6.4 0.00 0.00 0.00 95 1008.6
20260831101720 21 228 3.2 6.4 0.00 0.00 0.00 95 1008.6
20260831101558 21 228 4.8 6.4 0.00 0.00 0.00 95 1008.5
20260831101503 21 225 4.8 6.4 0.00 0.00 0.00 95 1008.5
20260831101408 21 225 3.2 6.4 0.00 0.00 0.00 95 1008.5
20260831101313 21 225 1.6 6.4 0.00 0.00 0.00 95 1008.4
20260831101201 21 225 1.6 6.4 0.00 0.00 0.00 95 1008.6
20260831101106 21 225 0.0 6.4 0.00 0.00 0.00 95 1008.6
20260831101031 21 225 1.6 6.4 0.00 0.00 0.00 95 1008.5
20260831100855 21 225 3.2 6.4 0.00 0.00 0.00 95 1008.4
20260831100800 21 225 3.2 6.4 0.00 0.00 0.00 95 1008.4
20260831100705 21 225 3.2 6.4 0.00 0.00 0.00 95 1008.4
20260831100629 21 225 4.8 6.4 0.00 0.00 0.00 95 1008.4
20260831100516 21 225 4.8 6.4 0.00 0.00 0.00 95 1008.4
20260831100354 21 225 3.2 6.4 0.00 0.00 0.00 95 1008.4
20260831100320 21 225 3.2 6.4 0.00 0.00 0.00 95 1008.4
20260831100158 21 225 3.2 6.4 0.00 0.00 0.00 95 1008.4
20260831100007 21 224 4.8 6.4 0.00 0.00 0.00 94 1008.4
20260831095916 21 224 4.8 6.4 0.00 0.00 0.00 94 1008.4
20260831095754 21 224 4.8 6.4 0.00 0.00 0.00 94 1008.3
20260831095719 21 223 3.2 6.4 0.00 0.00 0.00 94 1008.4
20260831095623 21 223 3.2 6.4 0.00 0.00 0.00 94 1008.4
20260831095507 21 223 3.2 6.4 0.00 0.00 0.00 94 1008.4
20260831095412 21 223 4.8 6.4 0.00 0.00 0.00 94 1008.4
20260831095301 21 223 4.8 6.4 0.00 0.00 0.00 94 1008.4
20260831095206 21 233 4.8 6.4 0.00 0.00 0.00 94 1008.4
20260831095110 21 232 4.8 6.4 0.00 0.00 0.00 94 1008.5
20260831095016 21 232 4.8 6.4 0.00 0.00 0.00 94 1008.4
20260831094854 21 232 3.2 6.4 0.00 0.00 0.00 94 1008.5
20260831094819 21 232 3.2 6.4 0.00 0.00 0.00 94 1008.5
20260831094703 21 232 3.2 6.4 0.00 0.00 0.00 94 1008.4
20260831094632 21 232 3.2 6.4 0.00 0.00 0.00 94 1008.4
20260831094515 21 232 3.2 6.4 0.00 0.00 0.00 94 1008.5
20260831094441 21 232 4.8 6.4 0.00 0.00 0.00 94 1008.4
20260831094258 21 232 4.8 6.4 0.00 0.00 0.00 94 1008.4
20260831094203 21 232 4.8 6.4 0.00 0.00 0.00 93 1008.5
20260831094108 21 232 3.2 4.8 0.00 0.00 0.00 93 1008.5
20260831094012 21 232 3.2 4.8 0.00 0.00 0.00 93 1008.4
20260831093901 21 232 3.2 4.8 0.00 0.00 0.00 93 1008.4
20260831093805 21 232 3.2 4.8 0.00 0.00 0.00 93 1008.4
20260831093709 21 232 3.2 4.8 0.00 0.00 0.00 93 1008.5
20260831093634 21 232 3.2 4.8 0.00 0.00 0.00 93 1008.4
20260831093518 22 232 3.2 4.8 0.00 0.00 0.00 93 1008.4
20260831093356 22 232 3.2 4.8 0.00 0.00 0.00 93 1008.4
20260831093305 22 232 3.2 4.8 0.00 0.00 0.00 93 1008.4
20260831093230 22 232 3.2 4.8 0.00 0.00 0.00 93 1008.4
20260831093113 22 232 3.2 6.4 0.00 0.00 0.00 93 1008.4
20260831092958 22 232 1.6 6.4 0.00 0.00 0.00 93 1008.5
20260831092923 22 232 1.6 6.4 0.00 0.00 0.00 93 1008.5
20260831092807 22 232 1.6 6.4 0.00 0.00 0.00 93 1008.5
20260831092712 22 232 3.2 6.4 0.00 0.00 0.00 93 1008.4
20260831092621 22 232 3.2 6.4 0.00 0.00 0.00 93 1008.5
20260831092457 22 232 3.2 6.4 0.00 0.00 0.00 93 1008.6
20260831092402 22 232 3.2 6.4 0.00 0.00 0.00 93 1008.5
20260831092307 22 232 3.2 6.4 0.00 0.00 0.00 93 1008.5
20260831092231 22 232 3.2 4.8 0.00 0.00 0.00 93 1008.5
20260831092112 22 232 3.2 4.8 0.00 0.00 0.00 93 1008.5
20260831092017 22 232 3.2 6.4 0.00 0.00 0.00 93 1008.5
20260831091905 22 232 3.2 6.4 0.00 0.00 0.00 93 1008.5
20260831091810 22 232 1.6 8.0 0.00 0.00 0.00 93 1008.5
20260831091655 22 232 3.2 8.0 0.00 0.00 0.00 93 1008.6
20260831091600 22 232 3.2 8.0 0.00 0.00 0.00 93 1008.6
20260831091505 22 232 3.2 8.0 0.00 0.00 0.00 93 1008.6
20260831091410 22 232 3.2 8.0 0.00 0.00 0.00 93 1008.6
20260831091259 22 232 4.8 8.0 0.00 0.00 0.00 93 1008.6
20260831091204 22 232 4.8 8.0 0.00 0.00 0.00 93 1008.5
20260831091107 22 238 4.8 8.0 0.00 0.00 0.00 93 1008.5
20260831091032 22 238 4.8 8.0 0.00 0.00 0.00 93 1008.6
20260831090915 22 255 4.8 9.7 0.00 0.00 0.00 93 1008.6
20260831090759 22 256 4.8 9.7 0.00 0.00 0.00 93 1008.6
20260831090704 22 257 3.2 9.7 0.00 0.00 0.00 93 1008.6
20260831090633 22 261 3.2 9.7 0.00 0.00 0.00 93 1008.6
20260831090517 22 265 3.2 9.7 0.00 0.00 0.00 93 1008.7
20260831090441 22 265 1.6 9.7 0.00 0.00 0.00 93 1008.7
20260831090258 22 265 3.2 9.7 0.00 0.00 0.00 93 1008.6
20260831090203 22 265 3.2 9.7 0.00 0.00 0.00 93 1008.7
20260831090107 22 265 3.2 9.7 0.00 0.00 0.00 93 1008.7
20260831085956 22 242 3.2 6.4 0.00 0.00 0.00 93 1008.7
20260831085901 22 242 3.2 6.4 0.00 0.00 0.00 93 1008.6
20260831085805 22 242 3.2 6.4 0.00 0.00 0.00 93 1008.6
20260831085710 22 240 3.2 6.4 0.00 0.00 0.00 93 1008.6
20260831085555 22 240 3.2 6.4 0.00 0.00 0.00 93 1008.4
20260831085500 22 240 4.8 6.4 0.00 0.00 0.00 93 1008.4
20260831085408 22 240 4.8 8.0 0.00 0.00 0.00 93 1008.4
20260831085313 22 241 4.8 8.0 0.00 0.00 0.00 93 1008.4
20260831085158 22 241 3.2 8.0 0.00 0.00 0.00 93 1008.4
20260831085103 22 241 3.2 8.0 0.00 0.00 0.00 92 1008.4
20260831085008 22 244 3.2 8.0 0.00 0.00 0.00 92 1008.4
20260831084913 22 244 3.2 8.0 0.00 0.00 0.00 92 1008.4
20260831084802 22 244 3.2 8.0 0.00 0.00 0.00 92 1008.4
20260831084706 22 244 4.8 8.0 0.00 0.00 0.00 92 1008.4
20260831084631 22 244 4.8 8.0 0.00 0.00 0.00 92 1008.4
20260831084516 22 234 4.8 6.4 0.00 0.00 0.00 92 1008.3
20260831084354 22 234 4.8 6.4 0.00 0.00 0.00 92 1008.4
20260831084259 22 235 3.2 6.4 0.00 0.00 0.00 92 1008.4
20260831084224 22 234 3.2 4.8 0.00 0.00 0.00 92 1008.5
20260831084131 22 234 3.2 4.8 0.00 0.00 0.00 92 1008.5
20260831083955 22 234 3.2 4.8 0.00 0.00 0.00 92 1008.5
20260831083920 22 235 3.2 4.8 0.00 0.00 0.00 92 1008.5
20260831083758 22 235 3.2 4.8 0.00 0.00 0.00 92 1008.5
20260831083703 22 235 3.2 4.8 0.00 0.00 0.00 92 1008.5
20260831083608 22 234 3.2 6.4 0.00 0.00 0.00 92 1008.5
20260831083518 22 234 1.6 6.4 0.00 0.00 0.00 92 1008.4
20260831083356 22 234 1.6 6.4 0.00 0.00 0.00 92 1008.5
20260831083301 22 234 1.6 6.4 0.00 0.00 0.00 92 1008.5
20260831083204 22 234 3.2 8.0 0.00 0.00 0.00 92 1008.4
20260831083109 22 234 3.2 8.0 0.00 0.00 0.00 92 1008.4
20260831083034 22 234 1.6 11.3 0.00 0.00 0.00 92 1008.5
20260831082902 22 234 3.2 11.3 0.00 0.00 0.00 92 1008.4
20260831082807 22 234 3.2 11.3 0.00 0.00 0.00 92 1008.4
20260831082712 22 234 3.2 11.3 0.00 0.00 0.00 92 1008.4
20260831082618 22 234 4.8 11.3 0.00 0.00 0.00 92 1008.3
20260831082456 22 234 4.8 11.3 0.00 0.00 0.00 92 1008.3
20260831082401 22 234 6.4 11.3 0.00 0.00 0.00 92 1008.2
20260831082310 22 234 6.4 11.3 0.00 0.00 0.00 92 1008.2
20260831082155 22 236 4.8 11.3 0.00 0.00 0.00 92 1008.2
20260831082119 22 229 4.8 11.3 0.00 0.00 0.00 92 1008.2
20260831082003 22 229 4.8 12.9 0.00 0.00 0.00 92 1008.2
20260831081907 22 229 4.8 12.9 0.00 0.00 0.00 92 1008.2
20260831081811 22 238 4.8 12.9 0.00 0.00 0.00 92 1008.2
20260831081700 22 238 4.8 12.9 0.00 0.00 0.00 92 1008.2
20260831081605 22 238 4.8 12.9 0.00 0.00 0.00 91 1008.2
20260831081510 22 237 4.8 12.9 0.00 0.00 0.00 92 1008.1
20260831081415 22 237 4.8 12.9 0.00 0.00 0.00 91 1008.1
20260831081320 22 237 6.4 12.9 0.00 0.00 0.00 92 1008.1
20260831081158 22 258 8.0 12.9 0.00 0.00 0.00 92 1008.2
20260831081123 22 234 8.0 12.9 0.00 0.00 0.00 92 1008.2
20260831081027 22 240 8.0 12.9 0.00 0.00 0.00 92 1008.2
20260831080855 22 232 6.4 12.9 0.00 0.00 0.00 91 1008.1
20260831080819 22 269 8.0 12.9 0.00 0.00 0.00 92 1008.2
20260831080703 22 217 8.0 12.9 0.00 0.00 0.00 92 1008.2
20260831080608 22 242 8.0 12.9 0.00 0.00 0.00 92 1008.2
20260831080513 22 251 8.0 12.9 0.00 0.00 0.00 92 1008.3
20260831080357 22 257 8.0 12.9 0.00 0.00 0.00 92 1008.2
20260831080306 22 255 8.0 14.5 0.00 0.00 0.00 92 1008.2
20260831080210 22 230 8.0 14.5 0.00 0.00 0.00 91 1008.1
20260831080115 22 246 6.4 14.5 0.00 0.00 0.00 91 1008.2
20260831080019 22 252 6.4 14.5 0.00 0.00 0.00 91 1008.2
20260831075903 22 249 6.4 14.5 0.00 0.00 0.00 91 1008.2
20260831075807 22 238 8.0 14.5 0.00 0.00 0.00 91 1008.2
20260831075656 22 236 8.0 14.5 0.00 0.00 0.00 91 1008.2
20260831075601 22 227 8.0 14.5 0.00 0.00 0.00 91 1008.2
20260831075506 22 219 8.0 14.5 0.00 0.00 0.00 91 1008.2
20260831075410 22 232 8.0 14.5 0.00 0.00 0.00 91 1008.2
20260831075315 22 227 6.4 11.3 0.00 0.00 0.00 91 1008.3
20260831075241 22 253 8.0 12.9 0.00 0.00 0.00 91 1008.3
20260831075058 22 237 6.4 12.9 0.00 0.00 0.00 91 1008.3
20260831075026 22 217 6.4 12.9 0.00 0.00 0.00 91 1008.3
20260831074910 22 215 4.8 12.9 0.00 0.00 0.00 91 1008.3
20260831074755 22 236 6.4 12.9 0.00 0.00 0.00 91 1008.3
20260831074659 22 236 6.4 12.9 0.00 0.00 0.00 91 1008.3
20260831074624 22 232 6.4 12.9 0.00 0.00 0.00 91 1008.4
20260831074528 22 238 6.4 12.9 0.00 0.00 0.00 91 1008.4
20260831074432 22 242 6.4 12.9 0.00 0.00 0.00 91 1008.3
20260831074300 22 233 6.4 11.3 0.00 0.00 0.00 91 1008.3
20260831074225 22 240 6.4 11.3 0.00 0.00 0.00 91 1008.3
20260831074129 22 243 6.4 11.3 0.00 0.00 0.00 91 1008.3
20260831074012 22 253 6.4 11.3 0.00 0.00 0.00 91 1008.3
20260831073857 22 229 6.4 8.0 0.00 0.00 0.00 91 1008.3
20260831073802 22 229 4.8 8.0 0.00 0.00 0.00 91 1008.4
20260831073707 22 227 4.8 8.0 0.00 0.00 0.00 91 1008.4
20260831073555 22 227 4.8 8.0 0.00 0.00 0.00 91 1008.4
20260831073520 22 227 4.8 8.0 0.00 0.00 0.00 91 1008.4
20260831073358 22 225 4.8 8.0 0.00 0.00 0.00 91 1008.4
20260831073303 22 225 4.8 8.0 0.00 0.00 0.00 91 1008.4
20260831073228 22 225 4.8 8.0 0.00 0.00 0.00 91 1008.4
20260831073132 22 221 4.8 8.0 0.00 0.00 0.00 91 1008.4
20260831073013 22 221 4.8 8.0 0.00 0.00 0.00 91 1008.3
20260831072901 22 242 4.8 9.7 0.00 0.00 0.00 90 1008.5
20260831072806 22 241 4.8 9.7 0.00 0.00 0.00 90 1008.5
20260831072711 22 241 4.8 9.7 0.00 0.00 0.00 90 1008.4
20260831072616 22 246 4.8 9.7 0.00 0.00 0.00 90 1008.5
20260831072454 22 240 4.8 9.7 0.00 0.00 0.00 90 1008.5
20260831072419 22 243 6.4 9.7 0.00 0.00 0.00 90 1008.4
20260831072307 22 229 6.4 9.7 0.00 0.00 0.00 90 1008.4
20260831072212 22 229 6.4 9.7 0.00 0.00 0.00 90 1008.4
20260831072057 22 229 6.4 9.7 0.00 0.00 0.00 90 1008.4
20260831072002 22 234 6.4 9.7 0.00 0.00 0.00 90 1008.4
20260831071907 22 236 6.4 9.7 0.00 0.00 0.00 90 1008.4
20260831071812 22 235 6.4 9.7 0.00 0.00 0.00 90 1008.5
20260831071701 22 240 6.4 12.9 0.00 0.00 0.00 90 1008.5
20260831071605 22 205 6.4 12.9 0.00 0.00 0.00 90 1008.5
20260831071510 22 233 6.4 12.9 0.00 0.00 0.00 90 1008.5
20260831071355 22 237 6.4 12.9 0.00 0.00 0.00 90 1008.6
20260831071300 22 237 6.4 12.9 0.00 0.00 0.00 90 1008.6
20260831071205 22 259 6.4 12.9 0.00 0.00 0.00 90 1008.6
20260831071114 22 224 6.4 12.9 0.00 0.00 0.00 90 1008.6
20260831071018 22 244 6.4 12.9 0.00 0.00 0.00 90 1008.6
20260831070856 22 234 6.4 16.1 0.00 0.00 0.00 90 1008.6
20260831070821 22 248 6.4 16.1 0.00 0.00 0.00 90 1008.6
20260831070705 22 250 6.4 16.1 0.00 0.00 0.00 90 1008.6
20260831070610 22 239 6.4 16.1 0.00 0.00 0.00 90 1008.6
20260831070459 22 223 6.4 16.1 0.00 0.00 0.00 90 1008.5
20260831070404 22 214 8.0 16.1 0.00 0.00 0.00 90 1008.4
20260831070309 22 213 9.7 16.1 0.00 0.00 0.00 90 1008.4
20260831070212 22 234 8.0 16.1 0.00 0.00 0.00 90 1008.5
20260831070057 22 213 6.4 12.9 0.00 0.00 0.00 90 1008.4
20260831070001 22 229 8.0 12.9 0.00 0.00 0.00 90 1008.5
20260831065910 22 233 8.0 12.9 0.00 0.00 0.00 90 1008.5
20260831065812 22 234 8.0 12.9 0.00 0.00 0.00 90 1008.5
20260831065657 22 257 6.4 12.9 0.00 0.00 0.00 90 1008.6
20260831065602 22 222 6.4 12.9 0.00 0.00 0.00 90 1008.6
20260831065507 22 223 8.0 12.9 0.00 0.00 0.00 90 1008.6
20260831065411 22 224 8.0 12.9 0.00 0.00 0.00 90 1008.6
20260831065300 22 224 8.0 12.9 0.00 0.00 0.00 90 1008.6
20260831065225 22 220 8.0 9.7 0.00 0.00 0.00 90 1008.6
20260831065106 22 221 6.4 11.3 0.00 0.00 0.00 90 1008.6
20260831065011 22 219 4.8 11.3 0.00 0.00 0.00 90 1008.7
20260831064916 23 240 6.4 11.3 0.00 0.00 0.00 90 1008.7
20260831064759 23 230 6.4 11.3 0.00 0.00 0.00 90 1008.7
20260831064704 23 241 6.4 11.3 0.00 0.00 0.00 90 1008.7
20260831064633 23 221 6.4 11.3 0.00 0.00 0.00 89 1008.7
20260831064537 23 220 6.4 11.3 0.00 0.00 0.00 89 1008.6
20260831064354 23 219 8.0 11.3 0.00 0.00 0.00 89 1008.6
20260831064259 23 211 8.0 11.3 0.00 0.00 0.00 89 1008.7
20260831064203 23 217 8.0 11.3 0.00 0.00 0.00 89 1008.8
20260831064107 23 207 6.4 11.3 0.00 0.00 0.00 89 1008.8
20260831063956 23 223 6.4 9.7 0.00 0.00 0.00 89 1008.8
20260831063900 23 214 6.4 9.7 0.00 0.00 0.00 89 1008.8
20260831063805 23 222 6.4 9.7 0.00 0.00 0.00 89 1008.8
20260831063709 23 214 4.8 8.0 0.00 0.00 0.00 89 1008.8
20260831063633 23 211 4.8 12.9 0.00 0.00 0.00 89 1008.9
20260831063516 23 211 4.8 12.9 0.00 0.00 0.00 89 1008.9
20260831063420 23 223 4.8 12.9 0.00 0.00 0.00 89 1008.9
20260831063258 23 243 6.4 12.9 0.00 0.00 0.00 89 1008.9
20260831063207 23 248 6.4 12.9 0.00 0.00 0.00 89 1008.9
20260831063112 23 223 6.4 12.9 0.00 0.00 0.00 89 1008.9
20260831063037 23 221 6.4 12.9 0.00 0.00 0.00 89 1008.9
20260831062854 23 225 6.4 12.9 0.00 0.00 0.00 89 1008.8
20260831062759 23 241 6.4 11.3 0.00 0.00 0.00 89 1008.8
20260831062704 23 234 6.4 12.9 0.00 0.00 0.00 89 1008.8
20260831062613 23 234 6.4 12.9 0.00 0.00 0.00 89 1008.8
20260831062539 23 229 6.4 12.9 0.00 0.00 0.00 89 1008.8
20260831062355 23 216 4.8 12.9 0.00 0.00 0.00 89 1008.9
20260831062300 23 236 4.8 12.9 0.00 0.00 0.00 89 1009.0
20260831062204 23 236 6.4 12.9 0.00 0.00 0.00 89 1009.0
20260831062129 23 250 6.4 12.9 0.00 0.00 0.00 89 1009.0
20260831062013 23 255 8.0 12.9 0.00 0.00 0.00 89 1009.0
20260831061902 23 240 9.7 12.9 0.00 0.00 0.00 89 1008.9
20260831061807 23 231 8.0 14.5 0.00 0.00 0.00 89 1008.9
20260831061712 23 261 6.4 14.5 0.00 0.00 0.00 89 1008.9
20260831061556 23 211 4.8 12.9 0.00 0.00 0.00 89 1009.0
20260831061501 23 237 6.4 12.9 0.00 0.00 0.00 89 1009.0
20260831061426 23 247 8.0 12.9 0.00 0.00 0.00 89 1009.0
20260831061254 23 236 6.4 12.9 0.00 0.00 0.00 89 1009.1
20260831061159 23 235 4.8 12.9 0.00 0.00 0.00 89 1009.1
20260831061123 23 234 4.8 12.9 0.00 0.00 0.00 89 1009.0
20260831061007 23 244 6.4 12.9 0.00 0.00 0.00 89 1009.0
20260831060912 23 249 6.4 12.9 0.00 0.00 0.00 88 1009.0
20260831060757 23 263 6.4 12.9 0.00 0.00 0.00 88 1008.9
20260831060706 23 232 4.8 12.9 0.00 0.00 0.00 88 1008.9
20260831060611 23 242 4.8 12.9 0.00 0.00 0.00 88 1009.0
20260831060516 23 247 6.4 12.9 0.00 0.00 0.00 88 1009.0
20260831060354 23 250 6.4 12.9 0.00 0.00 0.00 88 1009.0
20260831060259 23 236 8.0 12.9 0.00 0.00 0.00 88 1008.9
20260831060204 23 239 8.0 12.9 0.00 0.00 0.00 88 1008.9
20260831060112 23 236 6.4 16.1 0.00 0.00 0.00 88 1008.9
20260831055957 23 232 6.4 17.7 0.00 0.00 0.00 88 1009.0
20260831055902 23 244 8.0 17.7 0.00 0.00 0.00 88 1008.9
20260831055807 23 223 8.0 17.7 0.00 0.00 0.00 88 1008.9
20260831055712 23 247 6.4 17.7 0.00 0.00 0.00 88 1009.0
20260831055556 23 234 6.4 17.7 0.00 0.00 0.00 88 1009.0
20260831055525 23 236 8.0 17.7 0.00 0.00 0.00 88 1009.0
20260831055428 23 234 9.7 17.7 0.00 0.00 0.00 88 1009.0
20260831055311 23 238 9.7 17.7 0.00 0.00 0.00 88 1009.0
20260831055216 23 220 8.0 14.5 0.00 0.00 0.00 88 1009.0
20260831055120 23 209 6.4 14.5 0.00 0.00 0.00 88 1008.9
20260831055004 23 239 6.4 14.5 0.00 0.00 0.00 88 1009.1
20260831054929 23 234 8.0 14.5 0.00 0.00 0.00 88 1009.1
20260831054812 23 246 9.7 14.5 0.00 0.00 0.00 88 1009.1
20260831054701 23 244 9.7 12.9 0.00 0.00 0.00 88 1009.1
20260831054606 23 228 8.0 12.9 0.00 0.00 0.00 88 1009.1
20260831054511 23 229 8.0 12.9 0.00 0.00 0.00 88 1009.1
20260831054356 23 232 8.0 14.5 0.00 0.00 0.00 88 1009.1
20260831054301 23 230 6.4 14.5 0.00 0.00 0.00 88 1009.2
20260831054205 23 251 4.8 17.7 0.00 0.00 0.00 88 1009.2
20260831054134 23 236 3.2 17.7 0.00 0.00 0.00 88 1009.2
20260831054017 23 236 4.8 17.7 0.00 0.00 0.00 88 1009.2
20260831053901 23 236 6.4 17.7 0.00 0.00 0.00 88 1009.1
20260831053806 23 236 6.4 17.7 0.00 0.00 0.00 88 1009.1
20260831053731 23 235 6.4 17.7 0.00 0.00 0.00 87 1009.1
20260831053555 23 238 8.0 17.7 0.00 0.00 0.00 88 1009.2
20260831053520 23 234 9.7 17.7 0.00 0.00 0.00 87 1009.1
20260831053407 23 222 8.0 12.9 0.00 0.00 0.00 87 1009.1
20260831053312 23 229 8.0 12.9 0.00 0.00 0.00 87 1009.2
20260831053237 23 257 4.8 11.3 0.00 0.00 0.00 87 1009.4
20260831053141 23 244 4.8 11.3 0.00 0.00 0.00 87 1009.4
20260831052958 23 236 4.8 11.3 0.00 0.00 0.00 87 1009.5
20260831052922 23 232 4.8 11.3 0.00 0.00 0.00 87 1009.5
20260831052806 23 233 4.8 11.3 0.00 0.00 0.00 87 1009.5
20260831052655 23 246 4.8 11.3 0.00 0.00 0.00 87 1009.5
20260831052620 23 245 4.8 11.3 0.00 0.00 0.00 87 1009.5
20260831052458 23 252 4.8 11.3 0.00 0.00 0.00 87 1009.5
20260831052402 23 236 4.8 11.3 0.00 0.00 0.00 87 1009.5
20260831052307 23 237 6.4 11.3 0.00 0.00 0.00 87 1009.5
20260831052212 23 259 6.4 14.5 0.00 0.00 0.00 87 1009.5
20260831052101 23 248 8.0 14.5 0.00 0.00 0.00 87 1009.5
20260831052005 23 227 8.0 14.5 0.00 0.00 0.00 87 1009.5
20260831051910 23 248 8.0 14.5 0.00 0.00 0.00 87 1009.5
20260831051755 23 237 6.4 14.5 0.00 0.00 0.00 87 1009.5
20260831051719 23 250 6.4 14.5 0.00 0.00 0.00 87 1009.5
20260831051623 23 234 8.0 14.5 0.00 0.00 0.00 87 1009.5
20260831051507 23 239 9.7 14.5 0.00 0.00 0.00 87 1009.5
20260831051356 23 235 8.0 16.1 0.00 0.00 0.00 87 1009.6
20260831051321 23 240 6.4 14.5 0.00 0.00 0.00 87 1009.6
20260831051157 23 233 6.4 14.5 0.00 0.00 0.00 87 1009.7
20260831051102 23 234 6.4 14.5 0.00 0.00 0.00 87 1009.7
20260831051007 23 234 9.7 14.5 0.00 0.00 0.00 87 1009.7
20260831050912 23 250 9.7 14.5 0.00 0.00 0.00 87 1009.6
20260831050801 23 267 8.0 14.5 0.00 0.00 0.00 87 1009.7
20260831050706 23 252 8.0 14.5 0.00 0.00 0.00 87 1009.7
20260831050611 23 259 8.0 14.5 0.00 0.00 0.00 87 1009.7
20260831050456 23 232 6.4 14.5 0.00 0.00 0.00 87 1009.7
20260831050401 23 236 8.0 14.5 0.00 0.00 0.00 87 1009.8
20260831050304 23 250 9.7 14.5 0.00 0.00 0.00 87 1009.7
20260831050233 23 241 8.0 14.5 0.00 0.00 0.00 87 1009.7
20260831050110 23 265 8.0 14.5 0.00 0.00 0.00 87 1009.7
20260831050015 23 231 6.4 14.5 0.00 0.00 0.00 87 1009.7
20260831045859 23 242 6.4 14.5 0.00 0.00 0.00 86 1009.8
20260831045824 23 272 8.0 14.5 0.00 0.00 0.00 86 1009.8
20260831045708 23 268 8.0 14.5 0.00 0.00 0.00 86 1009.8
20260831045613 23 271 8.0 14.5 0.00 0.00 0.00 86 1009.8
20260831045502 23 265 8.0 14.5 0.00 0.00 0.00 86 1009.8
20260831045407 23 254 6.4 14.5 0.00 0.00 0.00 86 1009.9
20260831045312 23 275 6.4 14.5 0.00 0.00 0.00 86 1009.9
20260831045217 23 261 6.4 14.5 0.00 0.00 0.00 86 1009.9
20260831045055 23 290 9.7 14.5 0.00 0.00 0.00 86 1009.9
20260831045000 23 267 9.7 14.5 0.00 0.00 0.00 86 1009.9
20260831044908 23 267 8.0 14.5 0.00 0.00 0.00 86 1009.9
20260831044813 23 249 8.0 14.5 0.00 0.00 0.00 86 1009.9
20260831044658 23 257 8.0 12.9 0.00 0.00 0.00 86 1010.0
20260831044603 23 360 8.0 12.9 0.00 0.00 0.00 86 1009.9
20260831044508 23 222 8.0 12.9 0.00 0.00 0.00 86 1009.9
20260831044357 23 260 8.0 14.5 0.00 0.00 0.00 86 1010.0
20260831044322 23 297 6.4 14.5 0.00 0.00 0.00 86 1009.9
20260831044206 23 254 6.4 14.5 0.00 0.00 0.00 86 1009.9
20260831044111 23 242 8.0 14.5 0.00 0.00 0.00 86 1009.9
20260831043956 23 236 8.0 14.5 0.00 0.00 0.00 86 1010.0
20260831043921 23 281 6.4 14.5 0.00 0.00 0.00 86 1010.0
20260831043824 23 248 6.4 14.5 0.00 0.00 0.00 86 1010.0
20260831043708 23 250 8.0 20.9 0.00 0.00 0.00 86 1010.0
20260831043617 23 253 9.7 20.9 0.00 0.00 0.00 86 1010.0
20260831043455 23 262 6.4 20.9 0.00 0.00 0.00 86 1010.1
20260831043419 24 263 6.4 20.9 0.00 0.00 0.00 86 1010.1
20260831043323 24 261 8.0 20.9 0.00 0.00 0.00 86 1010.1
20260831043206 24 246 9.7 20.9 0.00 0.00 0.00 86 1010.1
20260831043111 24 229 6.4 20.9 0.00 0.00 0.00 86 1010.1
20260831043000 24 260 8.0 20.9 0.00 0.00 0.00 86 1010.0
20260831042925 24 224 12.9 20.9 0.00 0.00 0.00 86 1009.9
20260831042809 24 293 11.3 20.9 0.00 0.00 0.00 86 1009.9
20260831042734 24 296 9.7 17.7 0.00 0.00 0.00 86 1009.9
20260831042558 24 261 11.3 20.9 0.00 0.00 0.00 85 1009.9
20260831042503 24 291 11.3 20.9 0.00 0.00 0.00 85 1009.9
20260831042408 24 252 11.3 20.9 0.00 0.00 0.00 85 1009.9
20260831042257 24 257 8.0 20.9 0.00 0.00 0.00 85 1009.9
20260831042202 24 247 8.0 20.9 0.00 0.00 0.00 85 1010.0
20260831042127 24 240 9.7 20.9 0.00 0.00 0.00 85 1010.0
20260831042011 24 276 9.7 20.9 0.00 0.00 0.00 85 1010.0
20260831041915 24 254 11.3 20.9 0.00 0.00 0.00 85 1010.0
20260831041819 24 296 11.3 20.9 0.00 0.00 0.00 85 1010.0
20260831041702 24 252 11.3 20.9 0.00 0.00 0.00 85 1010.0
20260831041627 24 253 8.0 17.7 0.00 0.00 0.00 85 1010.0
20260831041513 24 255 9.7 17.7 0.00 0.00 0.00 85 1010.0
20260831041358 24 269 9.7 17.7 0.00 0.00 0.00 85 1010.0
20260831041323 24 284 8.0 17.7 0.00 0.00 0.00 85 1009.9
20260831041207 24 261 8.0 17.7 0.00 0.00 0.00 85 1009.9
20260831041112 24 290 11.3 17.7 0.00 0.00 0.00 85 1009.9
20260831041017 24 259 9.7 17.7 0.00 0.00 0.00 85 1009.9
20260831040904 24 268 8.0 19.3 0.00 0.00 0.00 85 1010.0
20260831040809 24 235 8.0 19.3 0.00 0.00 0.00 85 1010.0
20260831040654 24 244 9.7 19.3 0.00 0.00 0.00 85 1010.0
20260831040558 24 252 11.3 19.3 0.00 0.00 0.00 85 1010.0
20260831040523 24 283 9.7 19.3 0.00 0.00 0.00 85 1010.0
20260831040407 24 254 8.0 19.3 0.00 0.00 0.00 85 1010.0
20260831040256 24 265 9.7 19.3 0.00 0.00 0.00 84 1009.9
20260831040201 24 252 9.7 19.3 0.00 0.00 0.00 84 1009.9
20260831040106 24 294 8.0 19.3 0.00 0.00 0.00 84 1009.9
20260831040011 24 255 6.4 19.3 0.00 0.00 0.00 84 1009.9
20260831035855 24 360 9.7 19.3 0.00 0.00 0.00 84 1009.9
20260831035800 24 254 11.3 19.3 0.00 0.00 0.00 84 1009.8
20260831035708 24 236 12.9 19.3 0.00 0.00 0.00 84 1009.8
20260831035613 24 261 12.9 19.3 0.00 0.00 0.00 84 1009.8
20260831035537 24 246 11.3 19.3 0.00 0.00 0.00 84 1009.9
20260831035355 24 245 8.0 19.3 0.00 0.00 0.00 84 1009.9
20260831035300 24 298 8.0 19.3 0.00 0.00 0.00 84 1009.8
20260831035224 24 222 11.3 19.3 0.00 0.00 0.00 84 1009.9
20260831035108 24 271 11.3 19.3 0.00 0.00 0.00 84 1009.8
20260831035016 24 259 11.3 19.3 0.00 0.00 0.00 84 1009.8
20260831034859 24 263 11.3 17.7 0.00 0.00 0.00 84 1009.8
20260831034824 24 270 11.3 20.9 0.00 0.00 0.00 84 1009.8
20260831034707 24 257 12.9 20.9 0.00 0.00 0.00 84 1009.8
20260831034612 24 254 11.3 20.9 0.00 0.00 0.00 84 1009.8
20260831034457 24 281 8.0 20.9 0.00 0.00 0.00 84 1009.9
20260831034402 24 269 9.7 20.9 0.00 0.00 0.00 84 1009.9
20260831034310 24 230 8.0 20.9 0.00 0.00 0.00 84 1009.9
20260831034212 24 280 11.3 20.9 0.00 0.00 0.00 84 1009.9
20260831034056 24 267 12.9 20.9 0.00 0.00 0.00 84 1009.8
20260831034001 24 267 11.3 20.9 0.00 0.00 0.00 83 1009.8
20260831033905 24 273 9.7 17.7 0.00 0.00 0.00 83 1009.8
20260831033810 25 238 11.3 17.7 0.00 0.00 0.00 83 1009.8
20260831033719 25 242 8.0 17.7 0.00 0.00 0.00 83 1009.8
20260831033603 25 251 9.7 17.7 0.00 0.00 0.00 83 1009.9
20260831033508 25 281 8.0 17.7 0.00 0.00 0.00 83 1009.9
20260831033413 25 265 8.0 17.7 0.00 0.00 0.00 83 1009.8
20260831033257 25 235 8.0 14.5 0.00 0.00 0.00 83 1009.8
20260831033202 25 277 8.0 14.5 0.00 0.00 0.00 83 1009.8
20260831033126 25 223 8.0 14.5 0.00 0.00 0.00 83 1009.9
20260831032954 25 251 8.0 14.5 0.00 0.00 0.00 83 1009.9
20260831032859 25 231 8.0 14.5 0.00 0.00 0.00 83 1009.9
20260831032804 25 251 6.4 14.5 0.00 0.00 0.00 82 1010.0
20260831032709 25 265 6.4 16.1 0.00 0.00 0.00 82 1010.0
20260831032554 25 254 8.0 16.1 0.00 0.00 0.00 82 1010.0
20260831032459 25 259 8.0 16.1 0.00 0.00 0.00 82 1009.9
20260831032407 25 276 8.0 16.1 0.00 0.00 0.00 82 1009.9
20260831032312 25 252 8.0 16.1 0.00 0.00 0.00 82 1009.9
20260831032217 25 253 6.4 16.1 0.00 0.00 0.00 82 1009.8
20260831032055 25 242 6.4 16.1 0.00 0.00 0.00 82 1009.8
20260831032020 25 240 8.0 16.1 0.00 0.00 0.00 82 1009.8
20260831031904 25 270 9.7 16.1 0.00 0.00 0.00 82 1009.8
20260831031813 25 244 9.7 16.1 0.00 0.00 0.00 82 1009.8
20260831031658 25 247 11.3 17.7 0.00 0.00 0.00 82 1009.7
20260831031622 25 245 11.3 17.7 0.00 0.00 0.00 82 1009.7
20260831031506 25 273 8.0 19.3 0.00 0.00 0.00 82 1009.7
20260831031431 25 273 8.0 19.3 0.00 0.00 0.00 82 1009.7
20260831031315 25 244 6.4 19.3 0.00 0.00 0.00 82 1009.7
20260831031218 25 228 9.7 19.3 0.00 0.00 0.00 81 1009.7
20260831031122 25 261 11.3 19.3 0.00 0.00 0.00 81 1009.8
20260831031010 25 267 9.7 19.3 0.00 0.00 0.00 81 1009.8
20260831030854 25 261 8.0 19.3 0.00 0.00 0.00 81 1009.7
20260831030819 25 252 9.7 19.3 0.00 0.00 0.00 81 1009.7
20260831030657 25 256 11.3 20.9 0.00 0.00 0.00 81 1009.7
20260831030602 25 236 9.7 20.9 0.00 0.00 0.00 81 1009.7
20260831030507 25 247 8.0 20.9 0.00 0.00 0.00 81 1009.6
20260831030416 25 268 9.7 20.9 0.00 0.00 0.00 81 1009.6
20260831030300 25 259 9.7 20.9 0.00 0.00 0.00 81 1009.6
20260831030205 25 228 8.0 20.9 0.00 0.00 0.00 81 1009.6
20260831030110 25 227 8.0 20.9 0.00 0.00 0.00 81 1009.6
20260831030015 25 232 9.7 20.9 0.00 0.00 0.00 81 1009.6
20260831025940 25 254 11.3 20.9 0.00 0.00 0.00 81 1009.5
20260831025756 25 259 9.7 16.1 0.00 0.00 0.00 81 1009.4
20260831025725 25 292 9.7 14.5 0.00 0.00 0.00 80 1009.5
20260831025609 25 236 8.0 14.5 0.00 0.00 0.00 80 1009.5
20260831025454 25 244 6.4 14.5 0.00 0.00 0.00 80 1009.5
20260831025359 25 241 8.0 19.3 0.00 0.00 0.00 80 1009.5
20260831025306 25 242 8.0 20.9 0.00 0.00 0.00 80 1009.4
20260831025229 25 225 9.7 20.9 0.00 0.00 0.00 80 1009.4
20260831025057 25 227 11.3 20.9 0.00 0.00 0.00 80 1009.5
20260831025002 25 215 11.3 22.5 0.00 0.00 0.00 79 1009.5
20260831024907 25 251 9.7 22.5 0.00 0.00 0.00 79 1009.5
20260831024812 25 236 9.7 22.5 0.00 0.00 0.00 79 1009.5
20260831024656 25 264 14.5 22.5 0.00 0.00 0.00 79 1009.5
20260831024600 25 254 16.1 22.5 0.00 0.00 0.00 79 1009.6
20260831024524 25 285 14.5 22.5 0.00 0.00 0.00 79 1009.6
20260831024412 25 248 12.9 22.5 0.00 0.00 0.00 79 1009.6
20260831024317 25 232 12.9 22.5 0.00 0.00 0.00 79 1009.6
20260831024155 25 237 14.5 22.5 0.00 0.00 0.00 79 1009.6
20260831024100 25 251 12.9 22.5 0.00 0.00 0.00 78 1009.6
20260831024005 25 250 11.3 20.9 0.00 0.00 0.00 78 1009.6
20260831023909 25 234 9.7 20.9 0.00 0.00 0.00 78 1009.6
20260831023758 25 250 9.7 20.9 0.00 0.00 0.00 78 1009.7
20260831023703 25 255 11.3 24.1 0.00 0.00 0.00 78 1009.7
20260831023607 26 217 11.3 24.1 0.00 0.00 0.00 78 1009.7
20260831023532 26 216 9.7 24.1 0.00 0.00 0.00 78 1009.7
20260831023355 26 237 12.9 24.1 0.00 0.00 0.00 77 1009.7
20260831023300 26 253 14.5 24.1 0.00 0.00 0.00 77 1009.7
20260831023209 26 242 12.9 24.1 0.00 0.00 0.00 77 1009.7
20260831023054 26 232 12.9 24.1 0.00 0.00 0.00 77 1009.7
20260831022959 26 222 14.5 24.1 0.00 0.00 0.00 77 1009.7
20260831022924 26 284 14.5 24.1 0.00 0.00 0.00 77 1009.7
20260831022807 26 225 12.9 20.9 0.00 0.00 0.00 77 1009.7
20260831022712 26 259 9.7 20.9 0.00 0.00 0.00 76 1009.7
20260831022601 26 252 11.3 20.9 0.00 0.00 0.00 76 1009.7
20260831022506 26 231 12.9 20.9 0.00 0.00 0.00 76 1009.7
20260831022411 26 245 14.5 20.9 0.00 0.00 0.00 76 1009.7
20260831022256 26 265 12.9 20.9 0.00 0.00 0.00 76 1009.7
20260831022200 26 247 9.7 20.9 0.00 0.00 0.00 76 1009.7
20260831022104 26 224 9.7 20.9 0.00 0.00 0.00 76 1009.6
20260831022029 26 242 11.3 20.9 0.00 0.00 0.00 76 1009.6
20260831021857 26 238 9.7 22.5 0.00 0.00 0.00 75 1009.7
20260831021801 26 224 9.7 22.5 0.00 0.00 0.00 75 1009.7
20260831021726 26 268 11.3 22.5 0.00 0.00 0.00 75 1009.6
20260831021610 26 228 11.3 22.5 0.00 0.00 0.00 75 1009.6
20260831021515 26 274 9.7 22.5 0.00 0.00 0.00 75 1009.6
20260831021359 26 289 11.3 22.5 0.00 0.00 0.00 75 1009.6
20260831021308 26 263 12.9 22.5 0.00 0.00 0.00 75 1009.6
20260831021213 26 233 12.9 22.5 0.00 0.00 0.00 75 1009.5
20260831021117 26 220 12.9 22.5 0.00 0.00 0.00 75 1009.5
20260831020955 26 261 9.7 22.5 0.00 0.00 0.00 75 1009.5
20260831020859 26 267 11.3 24.1 0.00 0.00 0.00 75 1009.6
20260831020824 26 265 12.9 24.1 0.00 0.00 0.00 74 1009.5
20260831020708 26 257 11.3 24.1 0.00 0.00 0.00 74 1009.5
20260831020617 26 236 9.7 24.1 0.00 0.00 0.00 74 1009.4
20260831020455 26 225 12.9 24.1 0.00 0.00 0.00 74 1009.5
20260831020400 26 289 12.9 24.1 0.00 0.00 0.00 74 1009.5
20260831020324 26 241 12.9 24.1 0.00 0.00 0.00 74 1009.4
20260831020208 26 265 14.5 24.1 0.00 0.00 0.00 74 1009.4
20260831020112 26 252 12.9 24.1 0.00 0.00 0.00 74 1009.5
20260831020001 26 258 12.9 24.1 0.00 0.00 0.00 74 1009.6
20260831015906 26 238 14.5 24.1 0.00 0.00 0.00 74 1009.5
20260831015811 27 273 14.5 25.7 0.00 0.00 0.00 74 1009.5
20260831015715 27 260 16.1 25.7 0.00 0.00 0.00 74 1009.6
20260831015640 27 257 16.1 25.7 0.00 0.00 0.00 74 1009.7
20260831015457 27 269 16.1 25.7 0.00 0.00 0.00 73 1009.6
20260831015402 27 225 14.5 25.7 0.00 0.00 0.00 74 1009.6
20260831015311 27 250 14.5 25.7 0.00 0.00 0.00 73 1009.6
20260831015216 27 266 14.5 25.7 0.00 0.00 0.00 74 1009.8
20260831015100 27 232 14.5 25.7 0.00 0.00 0.00 74 1009.7
20260831015004 27 236 14.5 33.8 0.00 0.00 0.00 74 1009.8
20260831014909 27 283 16.1 33.8 0.00 0.00 0.00 74 1009.8
20260831014754 27 254 16.1 33.8 0.00 0.00 0.00 74 1009.6
20260831014703 27 238 16.1 33.8 0.00 0.00 0.00 74 1009.7
20260831014608 27 255 17.7 33.8 0.00 0.00 0.00 75 1009.7
20260831014533 27 243 16.1 33.8 0.00 0.00 0.00 75 1009.6
20260831014357 27 274 17.7 33.8 0.00 0.00 0.00 76 1009.5
20260831014302 27 235 20.9 33.8 0.00 0.00 0.00 76 1009.5
20260831014228 26 227 19.3 33.8 0.00 0.00 0.00 77 1009.6
20260831014132 26 259 17.7 29.0 0.00 0.00 0.00 78 1009.6
20260831014019 26 243 17.7 29.0 0.00 0.00 0.00 79 1009.6
20260831013857 26 231 16.1 22.5 0.00 0.00 0.00 80 1009.5
20260831013802 26 256 12.9 16.1 0.00 0.00 0.00 81 1009.5
20260831013707 26 244 12.9 17.7 0.00 0.00 0.00 82 1009.5
20260831013611 26 243 11.3 16.1 0.00 0.00 0.00 82 1009.5
20260831013456 26 236 8.0 14.5 0.00 0.00 0.00 83 1009.5
20260831013425 26 221 8.0 16.1 0.00 0.00 0.00 83 1009.5
20260831013309 26 248 9.7 16.1 0.00 0.00 0.00 83 1009.5
20260831013154 26 206 9.7 16.1 0.00 0.00 0.00 83 1009.4
20260831013058 26 221 8.0 16.1 0.00 0.00 0.00 83 1009.4
20260831013003 26 217 6.4 16.1 0.00 0.00 0.00 83 1009.4
20260831012927 26 216 8.0 16.1 0.00 0.00 0.00 83 1009.4
20260831012754 26 211 9.7 16.1 0.00 0.00 0.00 83 1009.2
20260831012659 26 215 11.3 16.1 0.00 0.00 0.00 83 1009.2
20260831012624 26 226 11.3 16.1 0.00 0.00 0.00 83 1009.2
20260831012508 26 234 9.7 16.1 0.00 0.00 0.00 83 1009.2
20260831012433 26 212 9.7 16.1 0.00 0.00 0.00 83 1009.1
20260831012256 26 192 9.7 17.7 0.00 0.00 0.00 83 1009.1
20260831012201 26 225 9.7 17.7 0.00 0.00 0.00 83 1009.0
20260831012126 26 209 9.7 17.7 0.00 0.00 0.00 83 1009.1
20260831011954 26 226 11.3 17.7 0.00 0.00 0.00 83 1009.1
20260831011919 26 220 11.3 17.7 0.00 0.00 0.00 83 1009.2
20260831011803 26 221 11.3 17.7 0.00 0.00 0.00 82 1009.1
20260831011708 26 231 11.3 17.7 0.00 0.00 0.00 82 1009.1
20260831011633 26 201 11.3 17.7 0.00 0.00 0.00 82 1009.1
20260831011517 26 209 11.3 17.7 0.00 0.00 0.00 82 1009.1
20260831011357 26 207 11.3 16.1 0.00 0.00 0.00 82 1009.1
20260831011306 26 213 11.3 16.1 0.00 0.00 0.00 82 1009.1
20260831011211 26 235 11.3 16.1 0.00 0.00 0.00 82 1009.1
20260831011055 26 221 11.3 16.1 0.00 0.00 0.00 82 1009.1
20260831011000 26 225 11.3 16.1 0.00 0.00 0.00 82 1009.1
20260831010904 26 213 11.3 16.1 0.00 0.00 0.00 82 1009.1
20260831010807 26 203 9.7 16.1 0.00 0.00 0.00 82 1009.1
20260831010656 27 219 8.0 16.1 0.00 0.00 0.00 82 1009.1
20260831010621 27 231 9.7 16.1 0.00 0.00 0.00 82 1009.1
20260831010523 27 208 9.7 16.1 0.00 0.00 0.00 82 1009.1
20260831010405 27 223 9.7 16.1 0.00 0.00 0.00 82 1009.1
20260831010310 27 200 11.3 16.1 0.00 0.00 0.00 82 1009.1
20260831010155 27 216 11.3 17.7 0.00 0.00 0.00 82 1009.1
20260831010100 27 211 11.3 16.1 0.00 0.00 0.00 82 1009.1
20260831010009 27 214 9.7 16.1 0.00 0.00 0.00 82 1009.1
20260831005934 27 215 9.7 16.1 0.00 0.00 0.00 82 1009.0
20260831005758 27 191 9.7 16.1 0.00 0.00 0.00 82 1009.0
20260831005703 27 192 8.0 16.1 0.00 0.00 0.00 82 1009.0
20260831005608 27 180 9.7 16.1 0.00 0.00 0.00 82 1009.0
20260831005512 27 174 11.3 16.1 0.00 0.00 0.00 82 1009.0
20260831005401 27 175 11.3 17.7 0.00 0.00 0.00 82 1008.9
20260831005327 27 195 9.7 17.7 0.00 0.00 0.00 82 1008.8
20260831005231 27 169 11.3 17.7 0.00 0.00 0.00 82 1008.8
20260831005134 27 173 12.9 17.7 0.00 0.00 0.00 81 1008.9
20260831004958 27 173 12.9 17.7 0.00 0.00 0.00 81 1008.8
20260831004903 27 171 12.9 17.7 0.00 0.00 0.00 81 1008.8
20260831004808 27 194 12.9 17.7 0.00 0.00 0.00 81 1008.8
20260831004733 27 157 12.9 17.7 0.00 0.00 0.00 81 1008.8
20260831004600 27 198 12.9 17.7 0.00 0.00 0.00 81 1008.8
20260831004505 27 175 11.3 17.7 0.00 0.00 0.00 81 1008.9
20260831004410 27 186 11.3 17.7 0.00 0.00 0.00 81 1008.9
20260831004255 27 188 11.3 16.1 0.00 0.00 0.00 81 1008.9
20260831004200 27 201 9.7 16.1 0.00 0.00 0.00 81 1008.9
20260831004105 27 182 8.0 16.1 0.00 0.00 0.00 81 1009.0
20260831003954 27 194 6.4 16.1 0.00 0.00 0.00 81 1009.0
20260831003859 27 190 9.7 16.1 0.00 0.00 0.00 80 1009.0
20260831003804 27 183 9.7 16.1 0.00 0.00 0.00 80 1009.1
20260831003709 27 190 11.3 16.1 0.00 0.00 0.00 80 1009.1
20260831003613 27 203 11.3 16.1 0.00 0.00 0.00 80 1009.1
20260831003517 27 190 11.3 16.1 0.00 0.00 0.00 80 1009.1
20260831003405 27 188 9.7 16.1 0.00 0.00 0.00 80 1009.1
20260831003310 27 197 11.3 16.1 0.00 0.00 0.00 80 1009.1
20260831003215 27 207 12.9 16.1 0.00 0.00 0.00 80 1009.2
20260831003059 27 187 12.9 20.9 0.00 0.00 0.00 80 1009.1
20260831003023 27 202 11.3 20.9 0.00 0.00 0.00 80 1009.1
20260831002927 27 196 9.7 20.9 0.00 0.00 0.00 80 1009.1
20260831002811 27 206 8.0 20.9 0.00 0.00 0.00 80 1009.1
20260831002700 27 191 9.7 20.9 0.00 0.00 0.00 80 1009.0
20260831002605 27 199 11.3 20.9 0.00 0.00 0.00 79 1009.1
20260831002510 27 197 12.9 20.9 0.00 0.00 0.00 79 1009.1
20260831002355 27 203 14.5 20.9 0.00 0.00 0.00 79 1008.9
20260831002259 27 197 14.5 20.9 0.00 0.00 0.00 79 1008.9
20260831002224 27 207 12.9 19.3 0.00 0.00 0.00 79 1008.9
20260831002112 27 202 12.9 22.5 0.00 0.00 0.00 79 1008.9
20260831002018 27 197 12.9 22.5 0.00 0.00 0.00 79 1008.9
20260831001855 27 197 12.9 22.5 0.00 0.00 0.00 79 1008.9
20260831001800 27 207 12.9 24.1 0.00 0.00 0.00 79 1009.0
20260831001705 27 190 9.7 22.5 0.00 0.00 0.00 79 1009.0
20260831001630 27 194 8.0 22.5 0.00 0.00 0.00 79 1009.0
20260831001458 28 205 9.7 22.5 0.00 0.00 0.00 78 1008.9
20260831001403 28 219 11.3 22.5 0.00 0.00 0.00 78 1009.0
20260831001328 28 220 11.3 22.5 0.00 0.00 0.00 78 1009.0
20260831001212 28 215 11.3 22.5 0.00 0.00 0.00 78 1008.8
20260831001057 28 198 14.5 22.5 0.00 0.00 0.00 78 1008.8
20260831001002 28 223 14.5 22.5 0.00 0.00 0.00 78 1008.9
20260831000907 28 196 12.9 20.9 0.00 0.00 0.00 78 1008.9
20260831000756 28 202 12.9 20.9 0.00 0.00 0.00 78 1008.9
20260831000700 28 197 12.9 20.9 0.00 0.00 0.00 78 1008.9
20260831000605 28 210 12.9 20.9 0.00 0.00 0.00 78 1008.8
20260831000510 28 186 12.9 20.9 0.00 0.00 0.00 78 1008.8
20260831000355 28 219 14.5 19.3 0.00 0.00 0.00 78 1008.8
20260831000300 28 204 12.9 19.3 0.00 0.00 0.00 78 1008.8
20260831000211 28 201 12.9 19.3 0.00 0.00 0.00 78 1008.8
20260831000133 28 177 11.3 19.3 0.00 0.00 0.00 78 1008.8
20260831000037 28 192 11.3 19.3 0.00 0.00 0.00 78 1008.7
20260830235854 28 204 11.3 19.3 0.00 0.00 0.00 78 1008.8
20260830235704 28 138 9.7 19.3 0.00 0.00 0.00 78 1008.8
20260830235609 28 184 9.7 14.5 0.00 0.00 0.00 78 1008.8
20260830235518 28 186 11.3 14.5 0.00 0.00 0.00 78 1008.8
20260830235356 28 182 11.3 14.5 0.00 0.00 0.00 78 1008.8
20260830235321 28 188 9.7 14.5 0.00 0.00 0.00 78 1008.8
20260830235205 28 204 9.7 11.3 0.00 0.00 0.00 78 1008.9
20260830235110 28 182 8.0 11.3 0.00 0.00 0.00 78 1008.9
20260830235034 28 185 8.0 12.9 0.00 0.00 0.00 78 1008.9
20260830234902 28 178 8.0 12.9 0.00 0.00 0.00 78 1009.0
20260830234807 28 182 8.0 16.1 0.00 0.00 0.00 77 1009.0
20260830234712 28 187 6.4 16.1 0.00 0.00 0.00 77 1009.0
20260830234557 28 163 6.4 16.1 0.00 0.00 0.00 77 1008.9
20260830234502 28 173 9.7 16.1 0.00 0.00 0.00 77 1009.0
20260830234406 28 171 9.7 17.7 0.00 0.00 0.00 77 1009.0
20260830234315 28 188 9.7 17.7 0.00 0.00 0.00 77 1008.9
20260830234219 28 198 9.7 17.7 0.00 0.00 0.00 77 1009.0
20260830234123 28 190 11.3 17.7 0.00 0.00 0.00 77 1009.1
20260830234007 28 189 11.3 17.7 0.00 0.00 0.00 77 1009.1
20260830233911 28 196 11.3 17.7 0.00 0.00 0.00 77 1009.0
20260830233816 28 192 9.7 17.7 0.00 0.00 0.00 77 1009.1
20260830233721 28 194 11.3 17.7 0.00 0.00 0.00 77 1009.1
20260830233558 28 233 11.3 17.7 0.00 0.00 0.00 77 1009.1
20260830233507 28 208 9.7 17.7 0.00 0.00 0.00 77 1009.1
20260830233412 28 202 8.0 16.1 0.00 0.00 0.00 77 1009.0
20260830233317 28 197 9.7 16.1 0.00 0.00 0.00 77 1009.0
20260830233201 28 208 11.3 16.1 0.00 0.00 0.00 77 1008.9
20260830233126 28 196 11.3 16.1 0.00 0.00 0.00 78 1008.9
20260830233010 28 231 12.9 16.1 0.00 0.00 0.00 77 1008.9
20260830232858 28 161 12.9 16.1 0.00 0.00 0.00 77 1008.9
20260830232803 28 198 12.9 16.1 0.00 0.00 0.00 77 1008.9
20260830232708 28 179 12.9 17.7 0.00 0.00 0.00 77 1008.9
20260830232613 28 191 11.3 19.3 0.00 0.00 0.00 78 1008.9
20260830232518 28 196 11.3 19.3 0.00 0.00 0.00 77 1008.9
20260830232356 28 193 11.3 19.3 0.00 0.00 0.00 77 1008.9
20260830232306 28 202 12.9 19.3 0.00 0.00 0.00 77 1008.9
20260830232210 28 176 12.9 19.3 0.00 0.00 0.00 77 1008.9
20260830232055 28 206 9.7 19.3 0.00 0.00 0.00 77 1008.9
20260830232020 28 172 11.3 19.3 0.00 0.00 0.00 77 1008.8
20260830231904 28 186 12.9 19.3 0.00 0.00 0.00 77 1008.9
20260830231808 28 180 12.9 19.3 0.00 0.00 0.00 77 1008.9
20260830231657 28 191 9.7 16.1 0.00 0.00 0.00 78 1008.9
20260830231602 28 173 9.7 12.9 0.00 0.00 0.00 78 1009.0
20260830231507 28 190 9.7 12.9 0.00 0.00 0.00 78 1009.0
20260830231411 28 190 8.0 12.9 0.00 0.00 0.00 77 1009.1
20260830231316 28 194 8.0 16.1 0.00 0.00 0.00 78 1009.1
20260830231154 28 186 8.0 16.1 0.00 0.00 0.00 77 1009.2
20260830231103 28 209 8.0 16.1 0.00 0.00 0.00 78 1009.2
20260830231028 28 199 8.0 16.1 0.00 0.00 0.00 77 1009.2
20260830230912 28 194 8.0 16.1 0.00 0.00 0.00 77 1009.3
20260830230818 28 193 8.0 16.1 0.00 0.00 0.00 77 1009.2
20260830230656 28 188 8.0 16.1 0.00 0.00 0.00 77 1009.2
20260830230601 28 186 9.7 16.1 0.00 0.00 0.00 76 1009.2
20260830230521 28 193 11.3 17.7 0.00 0.00 0.00 76 1009.1
20260830230409 28 199 11.3 17.7 0.00 0.00 0.00 76 1009.1
20260830230254 28 187 9.7 22.5 0.00 0.00 0.00 76 1009.1
20260830230158 28 184 9.7 22.5 0.00 0.00 0.00 76 1009.1
20260830230007 28 198 9.7 22.5 0.00 0.00 0.00 75 1009.0
20260830225912 28 180 8.0 22.5 0.00 0.00 0.00 76 1008.9
20260830225821 28 180 9.7 22.5 0.00 0.00 0.00 76 1008.9
20260830225704 28 187 11.3 22.5 0.00 0.00 0.00 75 1009.0
20260830225609 28 186 12.9 22.5 0.00 0.00 0.00 76 1009.0
20260830225454 28 205 12.9 22.5 0.00 0.00 0.00 75 1008.9
20260830225359 28 188 11.3 19.3 0.00 0.00 0.00 76 1009.0
20260830225305 28 204 9.7 19.3 0.00 0.00 0.00 75 1008.9
20260830225212 28 198 9.7 19.3 0.00 0.00 0.00 76 1008.9
20260830225056 28 186 12.9 19.3 0.00 0.00 0.00 76 1008.9
20260830225021 28 191 14.5 20.9 0.00 0.00 0.00 76 1009.0
20260830224905 28 184 14.5 20.9 0.00 0.00 0.00 76 1009.0
20260830224810 28 189 14.5 20.9 0.00 0.00 0.00 76 1009.0
20260830224715 28 200 12.9 20.9 0.00 0.00 0.00 75 1008.9
20260830224558 28 196 11.3 20.9 0.00 0.00 0.00 75 1008.9
20260830224523 28 194 12.9 20.9 0.00 0.00 0.00 75 1008.9
20260830224411 28 179 12.9 20.9 0.00 0.00 0.00 75 1008.9
20260830224316 28 189 12.9 20.9 0.00 0.00 0.00 75 1009.1
20260830224241 28 198 11.3 20.9 0.00 0.00 0.00 75 1009.1
20260830224058 28 143 12.9 20.9 0.00 0.00 0.00 75 1008.9
20260830224023 28 196 12.9 20.9 0.00 0.00 0.00 74 1009.0
20260830223907 29 194 12.9 20.9 0.00 0.00 0.00 75 1009.0
20260830223832 29 198 12.9 20.9 0.00 0.00 0.00 75 1008.9
20260830223659 29 208 16.1 20.9 0.00 0.00 0.00 75 1008.9
20260830223603 29 192 14.5 20.9 0.00 0.00 0.00 75 1008.9
20260830223508 29 190 12.9 20.9 0.00 0.00 0.00 75 1008.9
20260830223433 29 190 9.7 19.3 0.00 0.00 0.00 76 1008.9
20260830223316 29 200 9.7 19.3 0.00 0.00 0.00 76 1008.9
20260830223154 28 171 12.9 19.3 0.00 0.00 0.00 75 1009.0
20260830223103 29 198 12.9 19.3 0.00 0.00 0.00 75 1008.9
20260830223008 29 171 11.3 19.3 0.00 0.00 0.00 75 1008.9
20260830222912 29 188 9.7 20.9 0.00 0.00 0.00 76 1009.0
20260830222757 28 151 9.7 20.9 0.00 0.00 0.00 76 1008.9
20260830222702 28 198 9.7 20.9 0.00 0.00 0.00 76 1008.9
20260830222626 28 177 11.3 20.9 0.00 0.00 0.00 76 1008.9
20260830222510 28 191 12.9 20.9 0.00 0.00 0.00 76 1008.9
20260830222439 28 166 12.9 20.9 0.00 0.00 0.00 76 1008.9
20260830222256 28 222 16.1 20.9 0.00 0.00 0.00 76 1008.8
20260830222201 28 186 16.1 20.9 0.00 0.00 0.00 76 1008.9
20260830222106 28 184 12.9 20.9 0.00 0.00 0.00 75 1008.9
20260830222010 28 193 9.7 19.3 0.00 0.00 0.00 76 1008.9
20260830221855 28 184 9.7 19.3 0.00 0.00 0.00 77 1008.9
20260830221803 28 180 12.9 19.3 0.00 0.00 0.00 76 1008.9
20260830221707 28 184 12.9 20.9 0.00 0.00 0.00 77 1008.9
20260830221612 28 189 11.3 17.7 0.00 0.00 0.00 77 1009.0
20260830221457 28 180 12.9 17.7 0.00 0.00 0.00 77 1009.0
20260830221402 28 186 11.3 17.7 0.00 0.00 0.00 77 1009.0
20260830221307 28 194 11.3 17.7 0.00 0.00 0.00 78 1009.0
20260830221216 28 165 11.3 17.7 0.00 0.00 0.00 78 1009.1
20260830221141 28 169 12.9 17.7 0.00 0.00 0.00 77 1009.1
20260830220958 28 216 11.3 17.7 0.00 0.00 0.00 77 1009.1
20260830220923 28 193 11.3 17.7 0.00 0.00 0.00 77 1009.1
20260830220807 28 180 12.9 17.7 0.00 0.00 0.00 78 1009.1
20260830220712 28 193 12.9 19.3 0.00 0.00 0.00 77 1009.1
20260830220600 28 196 11.3 19.3 0.00 0.00 0.00 77 1009.2
20260830220505 28 217 11.3 19.3 0.00 0.00 0.00 77 1009.1
20260830220410 28 194 11.3 19.3 0.00 0.00 0.00 77 1009.1
20260830220255 28 168 12.9 19.3 0.00 0.00 0.00 76 1009.2
20260830220200 28 182 12.9 19.3 0.00 0.00 0.00 77 1009.1
20260830220105 28 198 14.5 19.3 0.00 0.00 0.00 76 1009.2
20260830215954 28 188 14.5 19.3 0.00 0.00 0.00 76 1009.2
20260830215858 28 191 12.9 19.3 0.00 0.00 0.00 76 1009.2
20260830215803 28 182 12.9 19.3 0.00 0.00 0.00 76 1009.2
20260830215707 28 194 11.3 19.3 0.00 0.00 0.00 76 1009.2
20260830215632 28 211 9.7 19.3 0.00 0.00 0.00 76 1009.2
20260830215515 28 169 11.3 20.9 0.00 0.00 0.00 76 1009.3
20260830215359 28 202 12.9 20.9 0.00 0.00 0.00 76 1009.3
20260830215307 28 205 12.9 20.9 0.00 0.00 0.00 76 1009.3
20260830215232 28 192 14.5 20.9 0.00 0.00 0.00 77 1009.3
20260830215116 28 192 14.5 20.9 0.00 0.00 0.00 76 1009.3
20260830214954 28 188 16.1 20.9 0.00 0.00 0.00 77 1009.3
20260830214919 28 194 14.5 20.9 0.00 0.00 0.00 77 1009.2
20260830214803 28 194 14.5 20.9 0.00 0.00 0.00 76 1009.3
20260830214708 28 189 14.5 20.9 0.00 0.00 0.00 77 1009.3
20260830214557 28 200 14.5 20.9 0.00 0.00 0.00 76 1009.4
20260830214502 28 203 12.9 20.9 0.00 0.00 0.00 76 1009.4
20260830214406 28 180 14.5 20.9 0.00 0.00 0.00 76 1009.4
20260830214331 28 202 14.5 20.9 0.00 0.00 0.00 76 1009.4
20260830214215 28 163 14.5 20.9 0.00 0.00 0.00 77 1009.4
20260830214120 28 192 14.5 20.9 0.00 0.00 0.00 76 1009.4
20260830213958 28 219 14.5 20.9 0.00 0.00 0.00 76 1009.5
20260830213923 28 189 11.3 19.3 0.00 0.00 0.00 76 1009.5
20260830213811 28 188 8.0 17.7 0.00 0.00 0.00 76 1009.5
20260830213737 28 205 8.0 17.7 0.00 0.00 0.00 76 1009.6
20260830213554 28 200 11.3 17.7 0.00 0.00 0.00 76 1009.5
20260830213519 28 189 14.5 17.7 0.00 0.00 0.00 76 1009.6
20260830213402 28 203 14.5 20.9 0.00 0.00 0.00 76 1009.6
20260830213326 28 194 14.5 20.9 0.00 0.00 0.00 76 1009.6
20260830213230 28 205 14.5 20.9 0.00 0.00 0.00 76 1009.6
20260830213057 28 209 12.9 22.5 0.00 0.00 0.00 76 1009.6
20260830213002 28 227 11.3 22.5 0.00 0.00 0.00 76 1009.6
20260830212927 28 196 11.3 22.5 0.00 0.00 0.00 76 1009.6
20260830212810 28 202 12.9 22.5 0.00 0.00 0.00 76 1009.6
20260830212716 28 167 14.5 22.5 0.00 0.00 0.00 76 1009.6
20260830212554 28 180 12.9 22.5 0.00 0.00 0.00 76 1009.6
20260830212458 28 205 12.9 22.5 0.00 0.00 0.00 77 1009.5
20260830212407 28 229 12.9 22.5 0.00 0.00 0.00 76 1009.5
20260830212312 28 191 12.9 22.5 0.00 0.00 0.00 77 1009.6
20260830212218 28 180 12.9 22.5 0.00 0.00 0.00 76 1009.6
20260830212056 28 238 14.5 22.5 0.00 0.00 0.00 76 1009.6
20260830212001 28 204 12.9 22.5 0.00 0.00 0.00 77 1009.7
20260830211906 28 215 11.3 20.9 0.00 0.00 0.00 77 1009.7
20260830211816 28 193 9.7 20.9 0.00 0.00 0.00 77 1009.7
20260830211654 28 218 9.7 20.9 0.00 0.00 0.00 77 1009.6
20260830211558 28 203 9.7 20.9 0.00 0.00 0.00 78 1009.7
20260830211504 28 229 12.9 22.5 0.00 0.00 0.00 77 1009.7
20260830211408 28 222 14.5 22.5 0.00 0.00 0.00 77 1009.7
20260830211257 28 216 12.9 22.5 0.00 0.00 0.00 76 1009.7
20260830211202 28 211 11.3 22.5 0.00 0.00 0.00 77 1009.7
20260830211107 28 213 12.9 22.5 0.00 0.00 0.00 77 1009.7
20260830211012 28 202 14.5 22.5 0.00 0.00 0.00 76 1009.7
20260830210857 28 222 17.7 22.5 0.00 0.00 0.00 75 1009.6
20260830210822 28 207 16.1 22.5 0.00 0.00 0.00 76 1009.7
20260830210705 28 198 14.5 22.5 0.00 0.00 0.00 77 1009.7
20260830210554 28 225 14.5 20.9 0.00 0.00 0.00 76 1009.6
20260830210459 28 209 16.1 20.9 0.00 0.00 0.00 76 1009.7
20260830210404 28 204 16.1 22.5 0.00 0.00 0.00 77 1009.7
20260830210308 28 190 16.1 22.5 0.00 0.00 0.00 77 1009.7
20260830210213 28 207 16.1 22.5 0.00 0.00 0.00 77 1009.6
20260830210118 28 172 12.9 22.5 0.00 0.00 0.00 77 1009.6
20260830210026 28 174 14.5 22.5 0.00 0.00 0.00 78 1009.7
20260830205909 28 196 16.1 22.5 0.00 0.00 0.00 77 1009.7
20260830205813 28 205 16.1 22.5 0.00 0.00 0.00 77 1009.6
20260830205718 27 202 16.1 27.4 0.00 0.00 0.00 78 1009.6
20260830205602 27 224 16.1 27.4 0.00 0.00 0.00 78 1009.7
20260830205507 27 184 16.1 27.4 0.00 0.00 0.00 77 1009.7
20260830205412 27 208 17.7 27.4 0.00 0.00 0.00 77 1009.7
20260830205320 27 216 17.7 27.4 0.00 0.00 0.00 77 1009.8
20260830205203 27 213 17.7 27.4 0.00 0.00 0.00 77 1009.8
20260830205108 27 219 17.7 27.4 0.00 0.00 0.00 77 1009.8
20260830205033 27 236 19.3 27.4 0.00 0.00 0.00 77 1009.7
20260830204857 27 239 16.1 25.7 0.00 0.00 0.00 79 1009.7
20260830204801 27 242 12.9 20.9 0.00 0.00 0.00 79 1009.8
20260830204726 27 218 11.3 17.7 0.00 0.00 0.00 79 1009.7
20260830204554 27 207 12.9 17.7 0.00 0.00 0.00 79 1009.8
20260830204519 27 187 12.9 19.3 0.00 0.00 0.00 80 1009.8
20260830204403 27 186 11.3 19.3 0.00 0.00 0.00 79 1009.8
20260830204308 27 175 9.7 19.3 0.00 0.00 0.00 80 1009.8
20260830204212 27 184 9.7 19.3 0.00 0.00 0.00 79 1009.9
20260830204057 27 150 9.7 19.3 0.00 0.00 0.00 80 1009.8
20260830204006 27 215 11.3 19.3 0.00 0.00 0.00 79 1009.9
20260830203911 27 209 12.9 24.1 0.00 0.00 0.00 80 1009.9
20260830203816 27 194 12.9 24.1 0.00 0.00 0.00 80 1009.9
20260830203654 27 190 12.9 24.1 0.00 0.00 0.00 80 1009.9
20260830203559 27 209 11.3 24.1 0.00 0.00 0.00 79 1009.9
20260830203504 27 192 11.3 24.1 0.00 0.00 0.00 80 1009.9
20260830203413 27 194 12.9 24.1 0.00 0.00 0.00 80 1009.9
20260830203318 27 163 12.9 24.1 0.00 0.00 0.00 79 1009.9
20260830203156 27 181 12.9 22.5 0.00 0.00 0.00 79 1010.0
20260830203101 27 216 12.9 22.5 0.00 0.00 0.00 79 1009.9
20260830203005 27 159 12.9 19.3 0.00 0.00 0.00 79 1009.9
20260830202910 27 169 12.9 22.5 0.00 0.00 0.00 80 1009.9
20260830202759 27 139 12.9 22.5 0.00 0.00 0.00 79 1009.8
20260830202703 27 195 14.5 22.5 0.00 0.00 0.00 80 1009.8
20260830202608 27 200 14.5 22.5 0.00 0.00 0.00 80 1009.8
20260830202533 27 191 12.9 22.5 0.00 0.00 0.00 80 1009.8
20260830202356 27 211 12.9 22.5 0.00 0.00 0.00 80 1009.8
20260830202301 27 173 14.5 22.5 0.00 0.00 0.00 80 1009.7
20260830202226 27 152 11.3 22.5 0.00 0.00 0.00 80 1009.7
20260830202054 27 171 8.0 16.1 0.00 0.00 0.00 82 1009.7
20260830202018 27 180 9.7 16.1 0.00 0.00 0.00 82 1009.7
20260830201856 27 173 11.3 17.7 0.00 0.00 0.00 81 1009.8
20260830201801 27 207 11.3 17.7 0.00 0.00 0.00 81 1009.7
20260830201706 27 184 11.3 17.7 0.00 0.00 0.00 80 1009.6
20260830201555 27 198 9.7 17.7 0.00 0.00 0.00 81 1009.6
20260830201500 27 164 9.7 17.7 0.00 0.00 0.00 81 1009.7
20260830201405 27 171 9.7 17.7 0.00 0.00 0.00 81 1009.6
20260830201310 27 162 11.3 17.7 0.00 0.00 0.00 80 1009.6
20260830201215 27 189 12.9 17.7 0.00 0.00 0.00 80 1009.8
20260830201059 27 211 12.9 16.1 0.00 0.00 0.00 80 1009.7
20260830201024 27 194 11.3 19.3 0.00 0.00 0.00 80 1009.6
20260830200912 27 170 11.3 19.3 0.00 0.00 0.00 80 1009.6
20260830200816 27 186 12.9 19.3 0.00 0.00 0.00 80 1009.5
20260830200654 27 163 11.3 24.1 0.00 0.00 0.00 80 1009.6
20260830200558 27 171 9.7 24.1 0.00 0.00 0.00 81 1009.6
20260830200503 27 114 11.3 24.1 0.00 0.00 0.00 81 1009.7
20260830200428 27 155 12.9 24.1 0.00 0.00 0.00 80 1009.7
20260830200332 27 190 12.9 24.1 0.00 0.00 0.00 81 1009.7
20260830200200 26 184 12.9 24.1 0.00 0.00 0.00 81 1009.7
20260830200105 26 145 11.3 24.1 0.00 0.00 0.00 80 1009.7
20260830200009 26 153 14.5 24.1 0.00 0.00 0.00 80 1009.7
20260830195934 26 157 17.7 24.1 0.00 0.00 0.00 80 1009.7
20260830195818 27 193 17.7 24.1 0.00 0.00 0.00 80 1009.8
20260830195656 27 211 12.9 24.1 0.00 0.00 0.00 80 1009.7
20260830195605 27 201 12.9 22.5 0.00 0.00 0.00 81 1009.6
20260830195510 27 154 11.3 22.5 0.00 0.00 0.00 81 1009.6
20260830195355 26 173 11.3 25.7 0.00 0.00 0.00 81 1009.6
20260830195259 26 148 11.3 25.7 0.00 0.00 0.00 81 1009.6
20260830195203 26 120 11.3 25.7 0.00 0.00 0.00 81 1009.5
20260830195128 26 161 12.9 25.7 0.00 0.00 0.00 80 1009.5
20260830195032 26 196 14.5 25.7 0.00 0.00 0.00 80 1009.6
20260830194900 26 148 16.1 25.7 0.00 0.00 0.00 80 1009.5
20260830194805 26 150 14.5 25.7 0.00 0.00 0.00 80 1009.6
20260830194729 26 171 12.9 25.7 0.00 0.00 0.00 81 1009.6
20260830194633 26 190 14.5 25.7 0.00 0.00 0.00 81 1009.7
20260830194537 26 167 12.9 24.1 0.00 0.00 0.00 81 1009.7
20260830194354 26 191 14.5 24.1 0.00 0.00 0.00 81 1009.7
20260830194259 26 181 14.5 24.1 0.00 0.00 0.00 81 1009.8
20260830194203 26 179 14.5 24.1 0.00 0.00 0.00 81 1009.8
20260830194128 26 145 14.5 24.1 0.00 0.00 0.00 81 1009.8
20260830194012 26 198 14.5 24.1 0.00 0.00 0.00 81 1009.8
20260830193857 26 204 14.5 27.4 0.00 0.00 0.00 81 1009.9
20260830193759 26 138 12.9 27.4 0.00 0.00 0.00 82 1010.0
20260830193703 26 167 12.9 27.4 0.00 0.00 0.00 82 1009.9
20260830193628 26 168 14.5 27.4 0.00 0.00 0.00 82 1009.9
20260830193456 26 172 14.5 27.4 0.00 0.00 0.00 81 1010.0
20260830193420 26 191 16.1 27.4 0.00 0.00 0.00 82 1010.1
20260830193324 26 155 16.1 27.4 0.00 0.00 0.00 82 1010.1
20260830193207 26 142 16.1 27.4 0.00 0.00 0.00 83 1010.1
20260830193112 26 150 14.5 27.4 0.00 0.00 0.00 82 1010.1
20260830193017 26 140 12.9 25.7 0.00 0.00 0.00 82 1010.1
20260830192900 26 163 12.9 25.7 0.00 0.00 0.00 83 1010.2
20260830192824 26 157 12.9 25.7 0.00 0.00 0.00 82 1010.2
20260830192712 26 165 12.9 25.7 0.00 0.00 0.00 82 1010.2
20260830192556 26 142 11.3 25.7 0.00 0.00 0.00 83 1010.2
20260830192500 26 169 8.0 20.9 0.00 0.00 0.00 83 1010.2
20260830192405 26 161 11.3 20.9 0.00 0.00 0.00 82 1010.2
20260830192310 26 140 12.9 20.9 0.00 0.00 0.00 82 1010.2
20260830192159 26 150 14.5 20.9 0.00 0.00 0.00 82 1010.3
20260830192103 26 134 12.9 20.9 0.00 0.00 0.00 82 1010.4
20260830192028 26 151 11.3 20.9 0.00 0.00 0.00 82 1010.4
20260830191913 26 155 11.3 17.7 0.00 0.00 0.00 82 1010.4
20260830191818 26 206 12.9 17.7 0.00 0.00 0.00 82 1010.4
20260830191655 26 175 14.5 17.7 0.00 0.00 0.00 82 1010.5
20260830191600 26 199 12.9 19.3 0.00 0.00 0.00 82 1010.6
20260830191508 26 173 11.3 19.3 0.00 0.00 0.00 83 1010.6
20260830191354 26 185 9.7 19.3 0.00 0.00 0.00 82 1010.7
20260830191259 26 154 9.7 17.7 0.00 0.00 0.00 83 1010.7
20260830191204 26 176 6.4 17.7 0.00 0.00 0.00 83 1010.7
20260830191129 26 154 8.0 17.7 0.00 0.00 0.00 83 1010.7
20260830191013 26 150 9.7 17.7 0.00 0.00 0.00 82 1010.8
20260830190901 26 165 12.9 17.7 0.00 0.00 0.00 82 1010.8
20260830190806 26 148 12.9 19.3 0.00 0.00 0.00 82 1010.8
20260830190732 26 166 11.3 20.9 0.00 0.00 0.00 83 1010.8
20260830190615 25 196 11.3 17.7 0.00 0.00 0.00 83 1010.7
20260830190459 25 194 11.3 17.7 0.00 0.00 0.00 82 1010.7
20260830190404 25 195 11.3 17.7 0.00 0.00 0.00 82 1010.8
20260830190328 25 165 12.9 17.7 0.00 0.00 0.00 82 1010.8
20260830190156 25 163 11.3 17.7 0.00 0.00 0.00 83 1010.7
20260830190100 25 171 9.7 17.7 0.00 0.00 0.00 83 1010.8
20260830190005 25 146 8.0 17.7 0.00 0.00 0.00 83 1010.7
20260830185909 25 159 8.0 17.7 0.00 0.00 0.00 83 1010.7
20260830185754 25 171 8.0 17.7 0.00 0.00 0.00 83 1010.8
20260830185720 25 171 11.3 17.7 0.00 0.00 0.00 82 1010.8
20260830185607 25 169 11.3 17.7 0.00 0.00 0.00 82 1010.8
20260830185512 25 158 11.3 17.7 0.00 0.00 0.00 82 1010.9
20260830185357 25 176 9.7 17.7 0.00 0.00 0.00 82 1010.9
20260830185302 25 161 11.3 17.7 0.00 0.00 0.00 82 1010.8
20260830185206 25 157 11.3 17.7 0.00 0.00 0.00 83 1010.8
20260830185111 25 175 12.9 17.7 0.00 0.00 0.00 82 1010.9
20260830185001 25 195 14.5 20.9 0.00 0.00 0.00 82 1010.9
20260830184906 25 171 12.9 20.9 0.00 0.00 0.00 82 1010.8
20260830184810 26 163 14.5 20.9 0.00 0.00 0.00 82 1010.8
20260830184656 26 183 12.9 20.9 0.00 0.00 0.00 82 1010.7
20260830184601 26 136 11.3 20.9 0.00 0.00 0.00 83 1010.8
20260830184505 26 163 12.9 20.9 0.00 0.00 0.00 83 1010.7
20260830184413 26 136 12.9 25.7 0.00 0.00 0.00 82 1010.7
20260830184315 26 147 11.3 25.7 0.00 0.00 0.00 84 1010.6
20260830184159 25 153 9.7 25.7 0.00 0.00 0.00 84 1010.7
20260830184122 25 119 9.7 25.7 0.00 0.00 0.00 83 1010.6
20260830184025 25 173 9.7 25.7 0.00 0.00 0.00 83 1010.6
20260830183907 25 161 12.9 25.7 0.00 0.00 0.00 83 1010.6
20260830183811 25 149 12.9 25.7 0.00 0.00 0.00 83 1010.6
20260830183714 25 163 14.5 25.7 0.00 0.00 0.00 83 1010.6
20260830183601 25 192 11.3 25.7 0.00 0.00 0.00 83 1010.7
20260830183524 25 194 11.3 27.4 0.00 0.00 0.00 84 1010.6
20260830183408 25 168 11.3 20.9 0.00 0.00 0.00 83 1010.6
20260830183331 25 138 14.5 20.9 0.00 0.00 0.00 84 1010.7
20260830183215 25 148 14.5 19.3 0.00 0.00 0.00 84 1010.6
20260830183058 25 182 14.5 19.3 0.00 0.00 0.00 84 1010.6
20260830183002 25 194 14.5 19.3 0.00 0.00 0.00 84 1010.6
20260830182911 25 195 12.9 16.1 0.00 0.00 0.00 84 1010.6
20260830182756 25 164 11.3 16.1 0.00 0.00 0.00 84 1010.6
20260830182701 25 188 11.3 17.7 0.00 0.00 0.00 84 1010.6
20260830182625 25 190 9.7 12.9 0.00 0.00 0.00 84 1010.6
20260830182505 25 165 9.7 16.1 0.00 0.00 0.00 84 1010.6
20260830182409 25 184 9.7 16.1 0.00 0.00 0.00 84 1010.6
20260830182259 25 161 9.7 16.1 0.00 0.00 0.00 84 1010.7
20260830182203 25 161 9.7 19.3 0.00 0.00 0.00 84 1010.7
20260830182108 25 143 9.7 19.3 0.00 0.00 0.00 84 1010.7
20260830182033 25 167 9.7 19.3 0.00 0.00 0.00 84 1010.7
20260830181857 25 190 9.7 19.3 0.00 0.00 0.00 84 1010.7
20260830181801 25 142 9.7 19.3 0.00 0.00 0.00 84 1010.8
20260830181706 25 184 11.3 19.3 0.00 0.00 0.00 83 1010.9
20260830181555 25 182 12.9 19.3 0.00 0.00 0.00 84 1011.0
20260830181520 25 195 12.9 19.3 0.00 0.00 0.00 84 1011.0
20260830181357 25 192 11.3 24.1 0.00 0.00 0.00 84 1011.0
20260830181302 25 188 8.0 24.1 0.00 0.00 0.00 84 1011.1
20260830181206 25 166 9.7 24.1 0.00 0.00 0.00 84 1011.1
20260830181056 25 180 12.9 24.1 0.00 0.00 0.00 83 1011.1
20260830181001 25 193 12.9 24.1 0.00 0.00 0.00 83 1011.1
20260830180905 25 180 12.9 24.1 0.00 0.00 0.00 83 1011.1
20260830180829 25 182 12.9 24.1 0.00 0.00 0.00 83 1011.1
20260830180733 25 169 14.5 24.1 0.00 0.00 0.00 83 1011.2
20260830180557 25 159 12.9 22.5 0.00 0.00 0.00 83 1011.2
20260830180522 25 191 11.3 17.7 0.00 0.00 0.00 84 1011.2
20260830180425 25 198 12.9 17.7 0.00 0.00 0.00 84 1011.1
20260830180312 25 177 14.5 17.7 0.00 0.00 0.00 84 1011.1
20260830180158 25 202 11.3 16.1 0.00 0.00 0.00 84 1011.1
20260830180006 25 198 9.7 16.1 0.00 0.00 0.00 84 1011.1
20260830175911 25 171 11.3 16.1 0.00 0.00 0.00 84 1011.1
20260830175816 25 169 9.7 16.1 0.00 0.00 0.00 84 1011.0
20260830175704 25 174 9.7 16.1 0.00 0.00 0.00 84 1011.0
20260830175608 25 178 11.3 17.7 0.00 0.00 0.00 84 1011.0
20260830175454 25 190 11.3 20.9 0.00 0.00 0.00 84 1011.2
20260830175418 25 182 11.3 20.9 0.00 0.00 0.00 84 1011.2
20260830175305 25 207 11.3 20.9 0.00 0.00 0.00 84 1011.2
20260830175206 25 190 9.7 20.9 0.00 0.00 0.00 84 1011.2
20260830175056 25 184 8.0 20.9 0.00 0.00 0.00 85 1011.2
20260830175000 25 206 11.3 20.9 0.00 0.00 0.00 85 1011.3
20260830174925 25 188 14.5 20.9 0.00 0.00 0.00 85 1011.2
20260830174808 25 186 14.5 20.9 0.00 0.00 0.00 84 1011.2
20260830174654 25 150 12.9 20.9 0.00 0.00 0.00 84 1011.2
20260830174558 25 190 12.9 17.7 0.00 0.00 0.00 85 1011.2
20260830174503 25 194 11.3 16.1 0.00 0.00 0.00 85 1011.1
20260830174431 25 169 11.3 14.5 0.00 0.00 0.00 85 1011.1
20260830174254 25 169 11.3 19.3 0.00 0.00 0.00 85 1011.2
20260830174200 25 202 11.3 19.3 0.00 0.00 0.00 85 1011.1
20260830174105 25 195 9.7 19.3 0.00 0.00 0.00 85 1011.2
20260830174010 25 199 8.0 19.3 0.00 0.00 0.00 85 1011.2
20260830173854 25 169 9.7 19.3 0.00 0.00 0.00 85 1011.2
20260830173804 25 204 11.3 19.3 0.00 0.00 0.00 85 1011.1
20260830173709 25 215 11.3 19.3 0.00 0.00 0.00 85 1011.1
20260830173634 25 189 12.9 19.3 0.00 0.00 0.00 85 1011.2
20260830173457 25 173 12.9 19.3 0.00 0.00 0.00 85 1011.2
20260830173401 24 189 12.9 17.7 0.00 0.00 0.00 85 1011.1
20260830173305 25 180 9.7 17.7 0.00 0.00 0.00 85 1011.1
20260830173154 24 171 11.3 17.7 0.00 0.00 0.00 85 1011.2
20260830173058 25 170 12.9 17.7 0.00 0.00 0.00 85 1011.2
20260830173003 25 191 11.3 16.1 0.00 0.00 0.00 85 1011.2
20260830172907 25 202 11.3 16.1 0.00 0.00 0.00 85 1011.2
20260830172812 25 201 11.3 16.1 0.00 0.00 0.00 85 1011.2
20260830172658 24 202 12.9 16.1 0.00 0.00 0.00 85 1011.3
20260830172607 24 184 12.9 16.1 0.00 0.00 0.00 85 1011.3
20260830172511 24 188 11.3 16.1 0.00 0.00 0.00 85 1011.2
20260830172416 24 213 11.3 16.1 0.00 0.00 0.00 86 1011.2
20260830172300 24 213 9.7 16.1 0.00 0.00 0.00 86 1011.2
20260830172204 24 188 8.0 16.1 0.00 0.00 0.00 86 1011.1
20260830172129 24 231 8.0 16.1 0.00 0.00 0.00 85 1011.1
20260830171956 24 194 9.7 16.1 0.00 0.00 0.00 85 1011.1
20260830171901 24 174 9.7 16.1 0.00 0.00 0.00 85 1011.1
20260830171805 24 182 11.3 16.1 0.00 0.00 0.00 85 1011.1
20260830171709 24 190 11.3 16.1 0.00 0.00 0.00 85 1011.1
20260830171634 24 196 11.3 16.1 0.00 0.00 0.00 85 1011.1
20260830171518 24 202 11.3 16.1 0.00 0.00 0.00 85 1011.1
20260830171355 24 197 12.9 16.1 0.00 0.00 0.00 85 1011.0
20260830171325 24 211 12.9 16.1 0.00 0.00 0.00 85 1011.0
20260830171209 24 220 11.3 16.1 0.00 0.00 0.00 86 1011.0
20260830171113 24 205 11.3 16.1 0.00 0.00 0.00 85 1010.9
20260830170958 24 138 11.3 16.1 0.00 0.00 0.00 85 1011.0
20260830170901 24 161 11.3 16.1 0.00 0.00 0.00 86 1010.9
20260830170804 24 129 11.3 16.1 0.00 0.00 0.00 86 1010.9
20260830170713 24 176 9.7 16.1 0.00 0.00 0.00 86 1010.9
20260830170617 24 163 9.7 14.5 0.00 0.00 0.00 86 1010.9
20260830170454 24 180 11.3 14.5 0.00 0.00 0.00 85 1010.9
20260830170358 24 170 11.3 14.5 0.00 0.00 0.00 85 1011.0
20260830170324 24 171 9.7 16.1 0.00 0.00 0.00 86 1010.9
20260830170207 24 163 8.0 16.1 0.00 0.00 0.00 85 1010.9
20260830170056 24 167 6.4 16.1 0.00 0.00 0.00 86 1011.0
20260830170000 24 161 8.0 16.1 0.00 0.00 0.00 86 1011.0
20260830165905 24 177 9.7 16.1 0.00 0.00 0.00 86 1010.9
20260830165810 24 167 11.3 16.1 0.00 0.00 0.00 86 1010.9
20260830165654 24 155 11.3 16.1 0.00 0.00 0.00 85 1010.9
20260830165558 24 178 11.3 16.1 0.00 0.00 0.00 85 1010.9
20260830165507 24 161 11.3 16.1 0.00 0.00 0.00 86 1010.9
20260830165432 24 200 9.7 16.1 0.00 0.00 0.00 86 1011.0
20260830165316 24 191 8.0 16.1 0.00 0.00 0.00 86 1010.9
20260830165159 24 171 6.4 12.9 0.00 0.00 0.00 86 1010.9
20260830165123 24 150 6.4 12.9 0.00 0.00 0.00 86 1010.9
20260830165007 24 141 8.0 12.9 0.00 0.00 0.00 86 1010.9
20260830164913 24 126 8.0 12.9 0.00 0.00 0.00 86 1010.9
20260830164817 24 171 6.4 14.5 0.00 0.00 0.00 87 1010.9
20260830164725 23 156 6.4 12.9 0.00 0.00 0.00 87 1011.0
20260830164628 23 164 6.4 14.5 0.00 0.00 0.00 87 1011.0
20260830164512 23 159 8.0 16.1 0.00 0.00 0.00 87 1010.9
20260830164356 23 175 6.4 16.1 0.00 0.00 0.00 87 1010.9
20260830164301 23 169 6.4 16.1 0.00 0.00 0.00 87 1010.8
20260830164205 23 166 6.4 16.1 0.00 0.00 0.00 87 1010.8
20260830164054 23 157 4.8 16.1 0.00 0.00 0.00 88 1010.8
20260830163959 23 142 6.4 16.1 0.00 0.00 0.00 88 1010.8
20260830163903 23 148 9.7 16.1 0.00 0.00 0.00 87 1010.8
20260830163808 23 132 9.7 16.1 0.00 0.00 0.00 87 1010.8
20260830163653 23 154 9.7 14.5 0.00 0.00 0.00 87 1010.8
20260830163559 23 124 8.0 14.5 0.00 0.00 0.00 87 1010.8
20260830163507 23 155 6.4 14.5 0.00 0.00 0.00 87 1010.8
20260830163412 23 123 6.4 16.1 0.00 0.00 0.00 88 1010.8
20260830163337 23 132 6.4 16.1 0.00 0.00 0.00 87 1010.7
20260830163153 23 137 6.4 17.7 0.00 0.00 0.00 87 1010.8
20260830163058 23 162 8.0 17.7 0.00 0.00 0.00 87 1010.8
20260830163022 23 167 8.0 17.7 0.00 0.00 0.00 87 1010.8
20260830162907 23 140 6.4 17.7 0.00 0.00 0.00 87 1010.8
20260830162755 23 134 6.4 17.7 0.00 0.00 0.00 87 1010.7
20260830162719 23 128 9.7 17.7 0.00 0.00 0.00 87 1010.7
20260830162623 23 153 11.3 17.7 0.00 0.00 0.00 87 1010.6
20260830162505 23 153 11.3 17.7 0.00 0.00 0.00 87 1010.7
20260830162410 23 146 11.3 17.7 0.00 0.00 0.00 87 1010.7
20260830162315 23 175 8.0 16.1 0.00 0.00 0.00 87 1010.7
20260830162219 23 190 8.0 16.1 0.00 0.00 0.00 87 1010.7
20260830162102 23 155 8.0 16.1 0.00 0.00 0.00 87 1010.7
20260830162011 23 161 8.0 16.1 0.00 0.00 0.00 87 1010.7
20260830161938 23 171 9.7 17.7 0.00 0.00 0.00 87 1010.8
20260830161754 23 171 9.7 17.7 0.00 0.00 0.00 87 1010.7
20260830161700 23 173 8.0 17.7 0.00 0.00 0.00 87 1010.7
20260830161605 23 178 9.7 17.7 0.00 0.00 0.00 87 1010.7
20260830161509 23 192 11.3 17.7 0.00 0.00 0.00 87 1010.7
20260830161358 23 163 11.3 17.7 0.00 0.00 0.00 87 1010.7
20260830161303 23 146 12.9 17.7 0.00 0.00 0.00 87 1010.7
20260830161207 23 183 12.9 17.7 0.00 0.00 0.00 87 1010.7
20260830161112 23 153 12.9 17.7 0.00 0.00 0.00 87 1010.7
20260830160958 23 202 9.7 17.7 0.00 0.00 0.00 87 1010.7
20260830160902 23 182 9.7 17.7 0.00 0.00 0.00 87 1010.7
20260830160827 23 171 8.0 17.7 0.00 0.00 0.00 87 1010.7
20260830160717 23 173 9.7 17.7 0.00 0.00 0.00 87 1010.8
20260830160555 23 184 11.3 17.7 0.00 0.00 0.00 87 1010.7
20260830160459 23 146 12.9 17.7 0.00 0.00 0.00 87 1010.6
20260830160405 23 206 9.7 17.7 0.00 0.00 0.00 87 1010.7
20260830160309 23 147 11.3 17.7 0.00 0.00 0.00 87 1010.7
20260830160158 23 159 9.7 17.7 0.00 0.00 0.00 87 1010.7
20260830160104 23 180 8.0 19.3 0.00 0.00 0.00 87 1010.7
20260830160009 23 165 8.0 19.3 0.00 0.00 0.00 87 1010.7
20260830155913 23 167 8.0 19.3 0.00 0.00 0.00 87 1010.7
20260830155818 23 148 9.7 19.3 0.00 0.00 0.00 87 1010.8
20260830155655 23 175 11.3 19.3 0.00 0.00 0.00 87 1010.9
20260830155619 23 152 11.3 19.3 0.00 0.00 0.00 87 1010.9
20260830155506 23 161 12.9 19.3 0.00 0.00 0.00 87 1010.9
20260830155411 23 142 11.3 19.3 0.00 0.00 0.00 87 1010.9
20260830155317 23 153 8.0 17.7 0.00 0.00 0.00 87 1010.8
20260830155155 23 140 9.7 17.7 0.00 0.00 0.00 87 1010.9
20260830155059 23 145 11.3 17.7 0.00 0.00 0.00 87 1011.0
20260830155025 23 189 12.9 17.7 0.00 0.00 0.00 87 1010.9
20260830154913 23 184 11.3 17.7 0.00 0.00 0.00 87 1010.9
20260830154819 23 139 11.3 17.7 0.00 0.00 0.00 87 1010.9
20260830154656 23 192 9.7 17.7 0.00 0.00 0.00 87 1010.8
20260830154602 23 158 11.3 17.7 0.00 0.00 0.00 87 1010.8